Baseball 板


LINE

客队: 旧 金 山 巨 人 2026 季赛打击成绩 AVG / OBP / OPS --- ↗HR↖ 1. 李 政 厚 (L) RF .268 / .313 / .692 2HR 2. Luis Arraez (L) 2B .311 / .342 / .726 3. Casey Schmitt (R) 3B .294 / .348 / .864 6HR 4. Rafael Devers (L) DH .240 / .292 / .681   5HR 5. Heliot Ramos (R) LF .278 / .317 / .760 4HR 6. Willy Adames (R) SS .215 / .247 / .591 3HR 7. Bryce Eldridge (L) 1B .143 / .250 / .607 1HR 8. Harrison Bader (R) CF .123 / .150 / .361 1HR 9. Eric Haase (R) C .286 / .286 / .714 先发投手 : (R) Adrian Houser 0W-4L ERA 6.19 WHIP 1.54 主队: 洛 杉 矶 道 奇 2026 季赛—本季打击成绩—AVG/OBP/OPS --- ↗HR↖ 1. 大 谷 翔 平 (L) DH .233 / .363 / .767 6HR 2. Mookie Betts (R) SS .182 / .270 / .664 2HR 3. Freddie Freeman (L) 1B .273 / .337 / .772 4HR 4. Kyle Tucker (L) RF .250 / .347 / .739   4HR 5. Will Smith (R) C .270 / .336 / .710 3HR 6. Max Muncy (L) 3B .280 / .375 / .943 11HR 7. Andy Pages (R) CF .325 / .366 / .922 9HR 8. Teoscar Hernandez (R) LF .248 / .329 / .709 4HR 9. 金 慧 成 (L) 2B .282 / .345 / .729 1HR      先发投手 : (R) 山 本 由 伸 3W-2L ERA 3.09 WHIP 1.01 巨人先发打线图片版: https://pbs.twimg.com/media/HIJt_AeawAAA-e_.jpg
道奇先发打线图片版: https://pbs.twimg.com/media/HIJqGQraAAAUUTK.jpg
即时气温预报 : 华氏 64 F  晴   风速  8 mph 打者顺风 ╭─────────────── 转播平台 ──────────────╮ │纬来育乐台 │ │爱尔达ELTA体育  2 台 (MOD CH201)      │ │MLB.TV ( 需 付 费 ) │ │Hami Video  https://hamivideo.hinet.net (请点选电视运动馆) │ │ │ │台湾时间早上10:10开打 │ ╰────────────────────────────────────╯ 观 战 花 絮 : 1. 主场三连败 道奇火力贫瘠创本季新高主场三连败 也是首度跌落国西龙头 今天再输就是本季第二度四连败 2. 没赢过道奇+今年也没赢 巨人先发> Houser 本季投得颇挣扎 迄今一胜难求 目前连五场被轰 期间共25局被轰7发 前一场对教士是内容最好的一场 6局被敲3安失2分(1分自责)优质先发败 生涯3度先发对道奇3战全败 ERA高达 12.34 生涯与道奇打线对战 vs 翔 平 3-2 1HR 2RBI 1K vs Betts 7-2 1RBI 1K vs Freeman 12-4 1HR 6RBI 0K vs Tucker 5-2 0K vs Smith 5-1 2RBI 0K vs Muncy 7-1 3K vs Pages 2-1 1K vs T.Hernandez 4-1 2K 3. 没赢过巨人 道奇先发> 山本 前一场对太空人 队友反常地前三局就猛攻六分领先 他吃满6局被敲5安失3分 送出8K+1BB拿下胜投(本季第六度优质先发) 生涯对巨人6度先发 0胜2败 ERA 3.19 本季对巨人一次 投7局失3分队友只帮得1分吞败 生涯与巨人打线对战 vs 李 12-3 1RBI 1K vs Arraez 13-3 1K vs Schmitt 12-2 1HR 5RBI 3K vs Devers 11-1 1RBI 6K vs Ramos 16-3 1RBI 3K vs Adames 14-3 1HR 1RBI 5K vs Eldridge 2-0 2K vs Bader 7-4 1RBI 3K 4. 开球嘉宾 冰块酷巴 >>> ICE CUBE https://pbs.twimg.com/media/HIKWrsXbgAAyhCm.jpg
5. 今日进场礼 https://pbs.twimg.com/media/HIKSBtjXQAEMQLY.jpg
https://pbs.twimg.com/media/HH-SwtfagAEh0CT.jpg
https://pbs.twimg.com/media/HIKHK2hXkAAoBx8.jpg
https://pbs.twimg.com/media/HIJjMETakAA94Bl.jpg
前40,000名进场观众可获得冰块酷巴开低底盘改装车进场摇头娃娃一个 -- MLB2026 马急来挑战! 你怎能不热爱棒球? It's SHO time !!! https://youtu.be/6Nbq65klFmM
-- ※ 文章网址: https://webptt.com/cn.aspx?n=bbs/Baseball/M.1778637923.A.00A.html
1F:推 SHOTN17: 来了 05/13 10:05
2F:推 hi750403: 打线不要再问天了 05/13 10:06
3F:→ hi750403: 请支援山本吧 05/13 10:06
4F:推 woddy: 今天会有爱山本打线吗? 05/13 10:06
5F:推 yufat: 想要公仔 05/13 10:06
6F:→ SHOTN17: 油鸡能不能担任Stopper呢!! 05/13 10:06
7F:推 dasbado: 山本还能笑多久 让我们继续看下去 05/13 10:07
8F:推 oomvp: 大谷今天会有安打吗 05/13 10:08
9F:推 SHOTN17: 看一下巨人先发ERA +山本先发 只能说经典 非常经典 = = 05/13 10:08
10F:推 jiaxie: 可能有 可能没有 05/13 10:08
11F:推 koj: 山本先发,大谷应该是5K 05/13 10:09
12F:推 socharge: 日本三巨投头号大哥昨天还行 二哥可以吧 05/13 10:09
13F:推 dylancdylanc: 对手0胜4负 ERA6. 应该道奇能打爆吧.. 05/13 10:09
14F:推 i376ers: 冷冻油鸡 冷冻凉平 05/13 10:09
15F:推 mork8850: 未看先猜有人嘘标题 05/13 10:09
16F:推 guns: 畅打 05/13 10:09
17F:推 bboykay: Ice Cube今天又来赞声了,可以止败了吧! 05/13 10:09
18F:推 faratia: Ice Cube,今天应该特凉 05/13 10:10
19F:推 crayon1988: Ice cube救命(X 05/13 10:10
20F:推 JoyceCr0z: era6对道奇就是赛扬 05/13 10:10
21F:推 hi750403: 山本加油 05/13 10:10
22F:推 Romulus: 今天山本先发怎麽解冻 准备3Kです 05/13 10:10
23F:推 jiaxie: 巨人投手要生涯代表作了 05/13 10:10
24F:→ GordonJordan: 学弟先发 3K2双杀 05/13 10:10
25F:推 xin114242: 今天第一局会不会又不稳开局 05/13 10:10
26F:推 oomvp: 大谷首打席有安打楼下100p,不求多了 05/13 10:10
27F:推 sorrywow: 库巴帅 05/13 10:10
28F:→ bboykay: 哭,Ice Cube不会是冰我方打线吧......... 05/13 10:10
29F:→ basala5417: 冻谷底 我在冷 05/13 10:10
30F:推 Amberla: 加油止败! 05/13 10:11
31F:推 SHOTN17: 而且油鸡对巨人还没胜投 -..- 05/13 10:11
32F:→ Romulus: 厚厚打一棒喔 05/13 10:11
33F:→ hi750403: 厚厚 05/13 10:11
34F:→ GordonJordan: 亟需发球机调手感 05/13 10:11
35F:推 woddy: 厚厚好帅 05/13 10:12
36F:推 Tr3vyy: Ice cube? 大谷才冷的像冰块 05/13 10:12
37F:推 po5454: 学长支援一下学弟吧 05/13 10:12
38F:→ hi750403: 球球*-*好险 05/13 10:12
39F:推 faratia: 海底捞 05/13 10:12
40F:推 bboykay: 这球捞到那边也是蛮强的 05/13 10:12
41F:→ hi750403: 吓死 05/13 10:13
42F:→ woddy: 漏1滴 05/13 10:13
43F:推 SHOTN17: 怕 05/13 10:13
44F:推 metro721: 差点 05/13 10:13
45F:→ hi750403: 麦阿捏啦 05/13 10:13
46F:推 ohya111326: 差点吃肉包 05/13 10:13
47F:推 jiaxie: 漏了一滴 05/13 10:13
48F:推 FannWong: 这只挥棒速度有够快 05/13 10:13
49F:推 socharge: 偷学大谷多停顿0.57秒 05/13 10:13
50F:→ hi750403: 差点砸 05/13 10:14
51F:推 daydreamer13: 火药味 05/13 10:14
52F:推 same60710: 对手SP这成绩 该赢了吧... 05/13 10:14
53F:→ woddy: 故意不小心?? 05/13 10:14
54F:推 Tr3vyy: 怕 05/13 10:14
55F:推 mork8850: 森77 05/13 10:14
56F:→ visviva: 表情XD 05/13 10:14
57F:→ SHOTN17: 能不能K掉鸟安王!? 05/13 10:14
58F:推 cheric: 不是故意不小心的 05/13 10:14
59F:→ hi750403: 他表情好多 05/13 10:14
60F:推 HoriMiona: 表情经典 05/13 10:14
61F:→ hi750403: 好烦 05/13 10:14
62F:→ daydreamer13: 真会选 05/13 10:14
63F:→ daydreamer13: 敢投喔 心脏真大颗 05/13 10:15
64F:→ SHOTN17: 果然很难K www 05/13 10:15
65F:推 bboykay: 不妙 跟昨天朗希有点像,被打好像都颇紮实 05/13 10:15
66F:推 vc39: 怎麽跟上一场一样被猫的都好紮实? 05/13 10:15
67F:推 cheric: 第一局的山本感觉都这样 05/13 10:16
68F:推 faratia: 直球塞到爽 05/13 10:16
69F:→ daydreamer13: 叉K 05/13 10:16
70F:→ bboykay: 这可以! 三上三下 05/13 10:16
71F:推 visviva: 第一局过了! 05/13 10:16
72F:推 s920223: K 05/13 10:16
73F:推 woddy: 没有首局病??你是谁?? 05/13 10:16
74F:推 crayon1988: K 05/13 10:16
75F:推 i376ers: 山本今年好像球都容易被打飞 05/13 10:16
76F:推 inf: 等等看大谷上来搞笑被K,嘻嘻 05/13 10:17
77F:→ SHOTN17: 准 多休一天 今天球速很快哦 97 98! 05/13 10:17
78F:推 rota: ? 05/13 10:17
79F:推 JustWinslow: 山本今天有催喔 到98 05/13 10:17
80F:推 Getbackers: 明天谁先发? 05/13 10:18
81F:→ Getbackers: 先猜一球鸟滚 05/13 10:18
82F:推 leo79415: 未看先猜一二垒方向鸟滚 05/13 10:18
83F:推 meicon5566: 一挥二看 05/13 10:19
84F:→ Getbackers: 红中都不会打了 05/13 10:19
85F:推 metro721: 2好 05/13 10:19
86F:推 Tr3vyy: 一挥二看 05/13 10:19
87F:推 zxcghjko: 球数真的太常落後了 05/13 10:19
88F:推 i376ers: 肉包都不打 05/13 10:19
89F:推 bboykay: 又是两好球走在前面了... 05/13 10:19
90F:推 jiaxie: 一挥二看光速两好K味浓 05/13 10:19
91F:→ meicon5566: H 05/13 10:19
92F:推 gotohikaru: 好运小水枪 05/13 10:19
93F:推 daydreamer13: 捞坏球 但穿了 05/13 10:19
94F:推 mork8850: 小水枪 05/13 10:19
95F:→ socharge: 现在听到上场音乐只有一股烙赛感 05/13 10:19
96F:推 samedi: 水枪 05/13 10:19
97F:→ leo79415: 熟悉的方向 只是滚出安打了 05/13 10:19
98F:→ bboykay: 今日任务完成 05/13 10:19
99F:→ i376ers: 滚滚小水枪 05/13 10:19
100F:→ zxcghjko: 硬捞 05/13 10:19
101F:推 zego41: 又是打坏球硬捞 05/13 10:19
102F:推 ohya111326: 水枪 05/13 10:19
103F:推 faratia: 昨天看人分析说大谷身体疲惫跟不太到四缝线 05/13 10:20
104F:推 SHOTN17: 杰尼杰尼 05/13 10:20
105F:推 paul31788: 还是滚滚 05/13 10:20
106F:推 uranuss: 滚出去了 05/13 10:20
107F:推 cdsjquiz: BiuBiu 05/13 10:20
108F:→ jiaxie: 笑死 捞到穿越安打! 05/13 10:20
109F:推 aa6300158: 滚球革命 05/13 10:20
110F:推 angel1314: 打坏球安打 05/13 10:20
111F:→ crayon1988: 又是低球硬打 这次刚好滚穿 05/13 10:20
112F:推 s920223: 又是这种球 05/13 10:20
113F:推 basala5417: 穿 05/13 10:20
114F:推 Romulus: 水枪发射找洞 05/13 10:20
115F:→ daydreamer13: 投打真的有克制的 05/13 10:20
116F:推 yufat: 滚地球level up 05/13 10:20
117F:推 wryyyyyyyy: 水枪谷 05/13 10:20
118F:推 cheric: 真的是状况差 05/13 10:20
119F:推 seanlatias: 水枪 05/13 10:20
120F:推 marx93521: 滚平 05/13 10:20
121F:推 wa782653: 鸟鸟安 05/13 10:20
122F:推 nightcrow: 还是打坏球,选球真的坏掉 05/13 10:20
123F:推 super009: 滚地鸟安 05/13 10:20
124F:→ Getbackers: 虽然安,但打得不好啊,又是一二间滚 05/13 10:20
125F:推 nigel711: 鸟滚 05/13 10:20
126F:推 fman: 打的很别扭但总是穿出去安打了 05/13 10:20
127F:推 hantsao: 终於安了 05/13 10:20
128F:→ gotohikaru: 桥一下而已 05/13 10:20
129F:→ jiaxie: 变速球真的不会打,不就好险有捞到 05/13 10:20
130F:→ Tiger23: 还是很丑只能变形拼运气滚出去 05/13 10:20
131F:→ metro721: 交差了 05/13 10:20
132F:推 CavendishJr: 穿出去,稳了 05/13 10:20
133F:推 rota: 强运 05/13 10:20
134F:推 inf: 可惜没被三振 05/13 10:20
135F:推 Acixxl: 双栖保龄球 05/13 10:20
136F:→ i376ers: 每日水枪(1/1) 05/13 10:20
137F:推 oomvp: 今日任务达成,可以备战明天登板了 05/13 10:20
138F:推 ivan1994: 滚滚流 爪爪流? 05/13 10:21
139F:推 neo74214: 是打安打了,可是打坏球… 05/13 10:21
140F:→ evadodoya: 现在投手就投外角变速调他 刚好这次捞到了 05/13 10:21
141F:→ Diaw0803: 终於穿出去了 05/13 10:21
142F:推 sunwit: 一样没力 05/13 10:21
143F:→ daydreamer13: 大豆说球的分析觉得蛮有道理的 机制没坏 但反应慢 05/13 10:21
144F:→ daydreamer13: 了 所以击球点都不在对的位子上 05/13 10:21
145F:推 shana781011: 是不是太久没看到木屐感觉大了一圈 05/13 10:21
146F:推 Tr3vyy: 找人QQ 05/13 10:21
147F:推 amazingjohnn: 好久不见 头一低 05/13 10:21
148F:→ jiaxie: 木屐 中间高飞OUT。 笑死不刷一下吗 05/13 10:21
149F:推 liuon: 不知道何时才能再有HR 05/13 10:21
150F:推 basala5417: 头一低本尊 05/13 10:21
151F:→ longriver: 头一低 05/13 10:21
152F:推 SHOTN17: 经典头一低 05/13 10:21
153F:推 CaminoI: 熟悉的味道 05/13 10:21
154F:推 cdsjquiz: 经典头一低 05/13 10:21
155F:→ Diaw0803: 木屐真的经典头一滴 05/13 10:21
156F:→ Getbackers: 大谷最近一直是这种一二垒间滚地球 05/13 10:21
157F:推 faratia: 看大豆分析就觉得现在的运动数据分析越来越恐怖 05/13 10:22
158F:→ CaminoI: 自由人安打 05/13 10:22
159F:→ daydreamer13: 自由人! 05/13 10:22
160F:推 Romulus: 或是挥太慢的界外 05/13 10:22
161F:推 inschool: 二哥! 05/13 10:22
162F:→ jiaxie: Freeman 右外落地安打! 05/13 10:22
163F:→ SHOTN17: 二哥 凸凹凸! 05/13 10:22
164F:推 zxcghjko: 凸凹凸 05/13 10:22
165F:推 bboykay: 有了有了,终於可以说,好险三连星有两个争气! 05/13 10:22
166F:→ dog29635841: 上次大谷首局安打不晓得过多久了 05/13 10:22
167F:→ jiaxie: 山本:今天感觉怪怪的 05/13 10:22
168F:推 cat110211: 还好还有自由人 05/13 10:22
169F:→ liuon: 三兄弟只有一人低头 05/13 10:22
170F:→ bboykay: 塔克老师也是都不挑战的 05/13 10:23
171F:推 gotohikaru: 最近山本先发都打不错吧 05/13 10:23
172F:→ CaminoI: 离开大谷後面比较顺 XD 05/13 10:23
173F:→ Getbackers: 压线这种不能怪打者 05/13 10:23
174F:→ bboykay: 山本先发打不错的只有上一场的样子 05/13 10:23
175F:→ basala5417: 今年的问天是大谷 05/13 10:23
176F:→ jiaxie: 第一局第一球,除非太离谱,很少会用ABS 05/13 10:24
177F:→ CaminoI: 对左打打击率三成八…… 05/13 10:24
178F:推 daydreamer13: 痛痛痛 05/13 10:24
179F:推 arodisgod: 故意不小心 05/13 10:24
180F:推 zego41: 塔克老师中弹 05/13 10:24
181F:推 woddy: 故意不小心 05/13 10:24
182F:推 zxcghjko: 痛 05/13 10:24
183F:→ jiaxie: 塔克 HBP! 1OUT 满垒的道奇! 05/13 10:24
184F:→ Getbackers: 满垒 05/13 10:24
185F:→ gotohikaru: 丢人哪 05/13 10:24
186F:推 crayon1988: 痛 没事吧 05/13 10:24
187F:推 angel1314: 痛 05/13 10:24
188F:→ CaminoI: 左脚脚踝? 05/13 10:24
189F:推 cat110211: 痛 05/13 10:24
190F:→ gotohikaru: 没护具的地方 05/13 10:24
191F:推 leo79415: 两好触 赚了 05/13 10:24
192F:推 DsLove710: 满垒计 05/13 10:24
193F:推 luca714: 闪不了 05/13 10:24
194F:→ daydreamer13: 没肉的地方 05/13 10:24
195F:推 uranuss: 怎麽突然就满了 05/13 10:24
196F:推 MK47: 丢人啦 好痛 没护具 05/13 10:24
197F:推 cdsjquiz: 痛 05/13 10:24
198F:推 Tr3vyy: 满垒计? 05/13 10:24
199F:→ inschool: 第一局满垒 尊督假督 05/13 10:24
200F:推 SHOTN17: 左打全部上垒 嗯… 05/13 10:24
201F:→ woddy: 满垒计准备 05/13 10:24
202F:推 Romulus: oh no 05/13 10:24
203F:→ angel1314: 满垒计? 05/13 10:25
204F:推 JWalk77: 影帝加油啊 05/13 10:25
205F:→ cdsjquiz: 那位置痛爆了 05/13 10:25
206F:推 dasbado: 影帝该表现一下了 05/13 10:25
207F:→ CaminoI: 厚厚接杀 05/13 10:25
208F:→ daydreamer13: 赞喔! 没DP 05/13 10:25
209F:→ Getbackers: 基本功 05/13 10:25
210F:→ citpo: 厚厚NP 05/13 10:25
211F:→ zego41: 厚厚接到了 05/13 10:25
212F:→ gotohikaru: 厚厚NP 05/13 10:25
213F:→ luca714: 可惜阿 05/13 10:25
214F:→ JWalk77: NP 05/13 10:25
215F:→ arodisgod: NP 05/13 10:25
216F:推 faratia: 打很好,可惜了 05/13 10:25
217F:→ zxcghjko: 基本功 05/13 10:25
218F:→ leo79415: 厚厚开秀 05/13 10:25
219F:推 crayon1988: 可惜 SF 05/13 10:25
220F:→ MK47: 厚厚这球蛮屌的 05/13 10:25
221F:→ angel1314: 哇 05/13 10:25
222F:→ woddy: 基本功 05/13 10:25
223F:推 carlchang092: 厚厚NP好猛 05/13 10:25
224F:→ SHOTN17: 厚厚 真的好帅…… 05/13 10:25
225F:→ inschool: 起码有基本功 05/13 10:25
226F:→ zxcghjko: 可惜没落地 05/13 10:25
227F:→ cat110211: 厚厚可以喔 05/13 10:25
228F:→ basala5417: 基本功 05/13 10:25
229F:→ jiaxie: Smith 右外飞球被江湖李接杀!笑死趁机刷到R 05/13 10:25
230F:推 s920223: 厚厚这麽厉害喔 05/13 10:25
231F:→ Romulus: 好大的守备范围 05/13 10:25
232F:推 Franc1224: 爱接鬼 05/13 10:25
233F:推 frank123ya: 厚厚救两分下来 05/13 10:25
234F:推 webber04: 厚厚欧巴好坏 05/13 10:25
235F:→ Tiger23: 厚厚做代志 05/13 10:26
236F:→ daydreamer13: 忙西再来一发 05/13 10:26
237F:→ woddy: 芒西靠你了 05/13 10:26
238F:推 bboykay: 厚厚今天状况好像不错喔,刚刚打击捞的那球其实也很漂亮 05/13 10:26
239F:→ DsLove710: 又帅又鬼 05/13 10:26
240F:→ iam0718: 还蛮猛的 05/13 10:26
241F:推 socharge: 将胡李接的不错 05/13 10:26
242F:推 vc39: 大姑手掌上面那个伤口还没好很久咧 05/13 10:26
243F:推 oomvp: 厚厚做歹志 05/13 10:26
244F:推 zsincerity: 二垒没推进? 05/13 10:27
245F:→ daydreamer13: 继续耗 05/13 10:27
246F:推 Kinner: 厚厚揍道奇 05/13 10:27
247F:→ ae8450: 大谷被村神海放 05/13 10:27
248F:→ daydreamer13: 还是低消一分 05/13 10:28
249F:推 jiaxie: Muncy 三垒小飞球OUT 05/13 10:28
250F:→ zsincerity: 大谷翔平最近飞球比例是不是变很低 05/13 10:28
251F:推 dasbado: 有一分山本开心 05/13 10:28
252F:推 Romulus: Freeman刚刚是在二三垒中间,因为可能落地 05/13 10:28
253F:推 bboykay: 又是满垒只得一分呀..... 05/13 10:29
254F:→ i376ers: 山本今天就这1分罗 05/13 10:29
255F:→ Romulus: touch-up的话可能会落地跑不回本垒 05/13 10:29
256F:推 preattyall: 大谷目前状态,许多大联盟球员都可以海放吧 05/13 10:29
257F:→ crayon1988: 山本最近很有爱了 问天组长是大谷 05/13 10:30
258F:嘘 money1943: 明天大谷问天 05/13 10:31
259F:推 woddy: 大谷一直打坏球啊,是累了还是该配西德眼镜? 05/13 10:31
260F:推 zsincerity: https://i.imgur.com/Z0OAMg7.jpeg 05/13 10:31
261F:推 daydreamer13: 敢喔 05/13 10:31
262F:推 SHOTN17: 97对决! 05/13 10:31
263F:→ daydreamer13: 大谷打击近况推荐可以去看yt大豆说球 讲得蛮仔细的 05/13 10:32
264F:→ daydreamer13: 我觉得能说明为什麽赛前练习跟正赛差这麽多 05/13 10:32
265F:→ SHOTN17: 黏! 05/13 10:32
266F:→ daydreamer13: 赞喔 正面k 05/13 10:32
267F:推 Ferrari360: K 05/13 10:32
268F:推 crayon1988: K 05/13 10:32
269F:推 woddy: KKKkkkkk 05/13 10:33
270F:推 oomvp: k 05/13 10:33
271F:→ SHOTN17: 猜错球 以为指叉吗 05/13 10:33
272F:→ inschool: 帅耶 05/13 10:33
273F:推 JoyceCr0z: 结果不丢变化球 05/13 10:33
274F:推 a3s5d6f4: 好帅 对决K 05/13 10:33
275F:推 crayon1988: 98mph 有催喔 05/13 10:33
276F:→ JoyceCr0z: 以山本来说少见吧 05/13 10:33
277F:推 faratia: 山本今天投得满果断的 05/13 10:33
278F:推 zego41: 那个进垒角度会以为是指叉 05/13 10:34
279F:→ a3s5d6f4: 伸卡也有97 05/13 10:34
280F:→ daydreamer13: 不要一直执着要完美边角顺畅很多 05/13 10:34
281F:→ Tiger23: 98山本要那天爆气才有 05/13 10:34
282F:推 Ferrari360: 舒服 05/13 10:35
283F:推 luckyhai: 感觉今天球很犀利 05/13 10:35
284F:推 JoyceCr0z: 今天感觉7局 05/13 10:35
285F:推 cdsjquiz: 轻松 05/13 10:35
286F:推 freetomove: 今天的球速也很好 05/13 10:36
287F:→ iam0718: 队友多给点支持就好啦 05/13 10:36
288F:推 zsincerity: 山本a梦,救救我 05/13 10:36
289F:推 Ferrari360: 球数球速都不错 XD 05/13 10:37
290F:推 oomvp: https://i.imgur.com/Rq8EzzW.png 山本今天有催哦 05/13 10:37
291F:推 faratia: 解决方案不知道是不是不要让大谷吃太多局数 05/13 10:38
292F:推 SHOTN17: 大狗很自信哦 05/13 10:38
293F:→ Ferrari360: 成功 05/13 10:38
294F:推 metro721: 喔 成功 05/13 10:38
295F:推 woddy: 鹰眼 05/13 10:38
296F:推 lmf770410: 准 05/13 10:38
297F:推 dasbado: 眼睛犀利 05/13 10:38
298F:推 liuon: 太准了 05/13 10:38
299F:→ faratia: 今年要拼赛扬体力都放进投手身体恢复期打击就惨 05/13 10:38
300F:推 rota: 怕黑的特训真的很有感 05/13 10:39
301F:→ yufat: 黑丝怎麽练的 长成这样 05/13 10:39
302F:→ oomvp: 还是k 05/13 10:39
303F:推 jiaxie: Pages 三坏领先还是挥空吃K 05/13 10:40
304F:推 Getbackers: 西语老师第八棒? 05/13 10:40
305F:推 faratia: 怎麽不知不觉老师就放到八棒去了XD 05/13 10:41
306F:→ Getbackers: 贯彻拿香战术 05/13 10:41
307F:推 foxey: 又k 05/13 10:41
308F:推 daydreamer13: 西语老师棒次最近很有弹性 换来换去 05/13 10:41
309F:推 woddy: 小金加油炸一个 05/13 10:41
310F:推 SHOTN17: 不会要三连斩吧 -..- 05/13 10:41
311F:→ daydreamer13: 海一颗 05/13 10:42
312F:→ faratia: 小金吃闷亏 05/13 10:42
313F:推 dasbado: ?? 05/13 10:42
314F:→ foxey: 小金状况应该还不错 这球被海 05/13 10:42
315F:推 wa782653: 小金没挑战权a 05/13 10:42
316F:→ Getbackers: 不敢碰 05/13 10:42
317F:→ Tiger23: 小金想挑战XD抖了一下 05/13 10:42
318F:推 ohya111326: 不敢挑战XDD 05/13 10:42
319F:推 hellva: 不敢挑战 05/13 10:42
320F:推 s920223: 小金不敢挑战= = 05/13 10:42
321F:推 zego41: 看韩国人好欺负? 05/13 10:42
322F:推 cocytus39: 不敢挑战喔 05/13 10:42
323F:→ basala5417: 这两颗 05/13 10:42
324F:推 liuon: 怕被骂不敢挑战 05/13 10:42
325F:嘘 twofaceman: 主审? 05/13 10:42
326F:→ woddy: 小金最近都苦瓜脸QQ 05/13 10:42
327F:推 luck945: 直接被主审海两球 05/13 10:42
328F:推 inschool: 季初乱挑战被念过吧 05/13 10:42
329F:→ foxey: 梯次崁站不够不敢拍头盔 05/13 10:42
330F:推 metro721: 不要又被念啦 05/13 10:42
331F:推 oomvp: 都不挑战…金是有被限制吗? 05/13 10:42
332F:→ SHOTN17: 小金 不拍就要下去罗 05/13 10:42
333F:推 roylee1214: 他刚刚是不是想拍 XD 05/13 10:42
334F:→ kenneth52045: 被萝卜骂到不敢= = 05/13 10:42
335F:推 CCandyMan05: 我就怕被骂 05/13 10:42
336F:→ daydreamer13: 早该保送了 05/13 10:43
337F:→ Getbackers: 拍了会被萝卜念 05/13 10:43
338F:→ twofaceman: 早就保送 05/13 10:43
339F:→ a912409691: 5个坏球 05/13 10:43
340F:推 socharge: 被萝卜搞的很犹豫不敢拍下去 05/13 10:43
341F:→ foxey: 其实被海的不算的话小金看球很准 05/13 10:43
342F:推 hellva: 五颗坏球了 05/13 10:43
343F:→ s920223: 小金:阿我就怕被骂 05/13 10:43
344F:→ woddy: 被念怕了 05/13 10:43
345F:→ daydreamer13: I c 05/13 10:43
346F:→ liuon: 学长下哨可以吃泡面不代表学弟可以XD 05/13 10:43
347F:推 wa782653: 小金可爱== 05/13 10:43
348F:推 faratia: 这是被K了才开始干主审吗? 05/13 10:43
349F:→ zego41: 衰啊小金 都投坏球被凹到满球数 05/13 10:44
350F:推 dasbado: 不是关键时刻没法 05/13 10:44
351F:推 iam0718: 笑了 这时候才在喊 05/13 10:44
352F:推 KurtCobain: 小金看来没信心的样子 05/13 10:44
353F:→ foxey: 四坏变k有够亏 连3k 05/13 10:44
354F:推 oomvp: 球都跟很进来,挥棒犹豫不决QQ 05/13 10:44
355F:→ metro721: 昨天直接在场边被萝卜念 05/13 10:44
356F:→ amazingjohnn: 烂死 整个打席都在犹豫 05/13 10:44
357F:推 jiaxie: Kim 挥空吃K,三连斩 05/13 10:44
358F:→ SHOTN17: 真的三连斩 点点点 05/13 10:44
359F:推 sunwit: 跟大谷一样烂 05/13 10:44
360F:推 smallthree33: 真的衰 05/13 10:44
361F:→ basala5417: 又要被念:你怎麽不挑战 05/13 10:44
362F:→ a7962904: 还敢跟主审抗议 烂死 05/13 10:44
363F:→ daydreamer13: 现在有挑战不用就怨不得人了 05/13 10:44
364F:推 Romulus: 6.1不是很正常的对道奇赛扬防御率吗 05/13 10:44
365F:→ hydra7: 信心全无啊 05/13 10:44
366F:推 CavendishJr: 完了,要下3A陪福利连了 05/13 10:44
367F:推 roylee1214: 狂怒 05/13 10:44
368F:嘘 money1943: 感觉又要问天 05/13 10:44
369F:推 JustWinslow: 一脸苦瓜 05/13 10:45
370F:推 JoyceCr0z: 巨人感觉可以横扫道奇 05/13 10:45
371F:推 foxy0703: 又来了 几乎场场爆炸的投手对到山本就变赛扬 上一场山本 05/13 10:45
372F:→ foxy0703: 又把这个月援护率扣打用光了 05/13 10:45
373F:→ daydreamer13: 任何人只要era 6以上都能参加道奇慈善塞扬大赛 05/13 10:45
374F:→ SHOTN17: 去年小金超容易被海高球 今年有ABS了 好像还是没差别 差 05/13 10:45
375F:→ SHOTN17: 滴 05/13 10:45
376F:推 wallaceboy: 今天稳稳拿下吧 05/13 10:45
377F:推 hexokinase: 巨人投手遇到道奇都变赛扬 05/13 10:45
378F:推 socharge: 问主审最後是不是坏球 05/13 10:45
379F:→ a7962904: 打击烂 最好等等守备不要雷我山本喔 05/13 10:46
380F:推 Romulus: 速球塞到爽 05/13 10:46
381F:→ amazingjohnn: 大误 05/13 10:47
382F:推 s920223: 93指叉 好猛 05/13 10:47
383F:推 yufat: 每个都想打死小狮的挥棒 05/13 10:47
384F:推 faratia: 今天真的状况+配球都很好 05/13 10:47
385F:推 inschool: KKK 05/13 10:48
386F:推 zxcghjko: K 05/13 10:48
387F:推 daydreamer13: 这麽高还钓到 05/13 10:48
388F:推 lmf770410: 真捧场 05/13 10:48
389F:推 SHOTN17: HFB !! 05/13 10:48
390F:嘘 DM16: 到期 继续贫打 05/13 10:48
391F:→ Tiger23: Bader状况有够差 05/13 10:48
392F:推 zego41: 巨人是不是比较不会打直球 今天配很多 05/13 10:49
393F:→ zxcghjko: 炸 05/13 10:49
394F:→ inschool: 挖 炸 05/13 10:49
395F:推 gotohikaru: 被炸啦 05/13 10:49
396F:→ daydreamer13: 哇 炸了 05/13 10:49
397F:→ citpo: 居然被他本季首轰 05/13 10:49
398F:推 a7962904: 炸 05/13 10:49
399F:推 JWalk77: 哭啊 05/13 10:49
400F:嘘 s920223: 干 05/13 10:49
401F:推 NowQmmmmmmmm: 一分没了 05/13 10:49
402F:推 Getbackers: 炸 05/13 10:49
403F:→ SHOTN17: 出去啦 05/13 10:49
404F:推 visviva: QQ 05/13 10:49
405F:推 jiaxie: 炸裂! 05/13 10:49
406F:推 cat110211: 炸 05/13 10:49
407F:推 angel1314: 又平了 05/13 10:49
408F:推 Ferrari360: QQ 05/13 10:49
409F:推 metro721: 被猫到了 05/13 10:49
410F:推 CaminoI: 炸啦 05/13 10:49
411F:→ Tiger23: 被9棒咬到 05/13 10:49
412F:推 antidote: Posey: 嘻嘻 卖Bailey是正确的 05/13 10:49
413F:推 carlchang092: 那个Bailey不要了 啊已经送走了XD 05/13 10:49
414F:推 ohya111326: 山本今年很容易被炸 05/13 10:49
415F:推 oomvp: 山本好苦 05/13 10:49
416F:→ NowQmmmmmmmm: 被第九棒打了本季首轰 05/13 10:49
417F:推 c251970: 哇炸山本! 05/13 10:49
418F:推 cheric: 一脸怀疑人生 05/13 10:49
419F:推 evadodoya: 敢o好打的好 05/13 10:49
420F:推 woddy: 不能称赞 05/13 10:49
421F:→ zego41: 好了山本要开启被动了 05/13 10:50
422F:推 foxy0703: 丸子 打线被封锁状况下掉分 05/13 10:50
423F:推 liuon: 想要变身绝境山本了吗 05/13 10:50
424F:推 jwptt: Posey: 知道为什麽交易了吧 05/13 10:50
425F:推 faratia: This cutter....doesn't cut (武器大师 05/13 10:50
426F:→ iam0718: 拍拍 05/13 10:50
427F:推 s6901130: 山本很容易被後段棒次炸欸 05/13 10:50
428F:→ citpo: 厚厚挑战成功 05/13 10:50
429F:推 Romulus: 这颗卡特丢到红中真的超级肉包 05/13 10:50
430F:→ carlchang092: <0.1可惜啊 05/13 10:50
431F:推 yangtsur: 今年被轰好多发 05/13 10:50
432F:→ Getbackers: 鹰 05/13 10:50
433F:推 zoro86227: 怎麽没人发炸裂文 05/13 10:50
434F:推 yufat: <0.1 05/13 10:50
435F:→ SHOTN17: 厚厚 真的好帅… 05/13 10:50
436F:嘘 jehk: 道奇打线到底要烂多久? 05/13 10:50
437F:→ Tiger23: 厚厚挑战小金不敢,坎站不一样 05/13 10:51
438F:→ yangtsur: ICE CUBE 上场? 05/13 10:51
439F:推 disasterD: 打线真的烂爆 05/13 10:51
440F:→ citpo: 去主播台 05/13 10:51
441F:推 pett: 厚厚队友要拉他 他也不给拉 这个坎站小金比不上 05/13 10:52
442F:推 foxey: 看hami一直看到圣子的大谷广告都觉得吹了 05/13 10:52
443F:推 Getbackers: 看是不是又往一二垒间滚 05/13 10:53
444F:推 yufat: 没营养滚 FO K 选一个 05/13 10:53
445F:推 faratia: 这是在大谷打击的时候也不看了直接播主播间吗? 05/13 10:53
446F:推 oomvp: 巨人捕手都拿道奇开刀吗XD 之前bailey本季首轰也是刷道奇 05/13 10:53
447F:→ foxey: 先猜追打大坏球K 05/13 10:53
448F:推 yangtsur: 道奇铁粉 05/13 10:54
449F:→ nekomai: 大谷小水枪开滋了 要回神了吗 05/13 10:54
450F:嘘 Axwell: … 05/13 10:54
451F:推 Tr3vyy: 大肉包没打到 05/13 10:54
452F:→ yangtsur: 红中真的都尻不到 05/13 10:54
453F:推 bboykay: 真希望哪一天可以看到狗爷也来现场开球 05/13 10:54
454F:推 gotohikaru: 炸啦!!!!!!!!!!! 05/13 10:54
455F:→ nekomai: 出去拉! 05/13 10:54
456F:→ yufat: 是不是要学忙西配眼镜 位置差这麽多 05/13 10:54
457F:推 inschool: 出去拉!!!!!!!!!! 05/13 10:55
458F:推 zxcghjko: 炸 05/13 10:55
459F:推 jiaxie: 笑死 炸裂啦! 05/13 10:55
460F:推 daydreamer13: 出去啦 05/13 10:55
461F:→ gotohikaru: 终於啊 05/13 10:55
462F:推 Getbackers: 炸 05/13 10:55
463F:推 luca714: 来拉 05/13 10:55
464F:→ foxey: 耶 被打脸好爽 05/13 10:55
465F:→ Tr3vyy: 终於 05/13 10:55
466F:推 crayon1988: 炸了啦 05/13 10:55
467F:→ bboykay: 终於!!!!!!!!!!!!!!!!!!!!! 05/13 10:55
468F:推 mictoaety: 终於啊 05/13 10:55
469F:→ faratia: 谢Ice Cube赐轰 05/13 10:55
470F:推 CaminoI: 炸裂啦 终於 05/13 10:55
471F:推 zego41: 凉平 打出来来啦 05/13 10:55
472F:推 nepenthes7: 没有绝境的山本就是会被尻 囧 05/13 10:55
473F:推 MK47: 学长做事啦~~~~ 05/13 10:55
474F:推 chunhoo: 终於 05/13 10:55
475F:推 SHOTN17: 77777 05/13 10:55
476F:推 s920223: 终於!!! 05/13 10:55
477F:推 visviva: 学长今天有做事!! 05/13 10:55
478F:推 cool8418: 终於阿 05/13 10:55
479F:推 NowQmmmmmmmm: 学长终於上班了 05/13 10:55
480F:→ zxcghjko: 终於啊 05/13 10:55
481F:→ inschool: 等几场了他马的 05/13 10:55
482F:推 Russ: 终於 05/13 10:55
483F:→ yufat: 闲聊召唤HR 笑死 05/13 10:55
484F:推 a7962904: 炸 05/13 10:55
485F:推 foxy0703: 竟然山本先发会开轰! 05/13 10:55
486F:推 cy900104: 爱山本 05/13 10:55
487F:推 marx93521: 炸啊 05/13 10:55
488F:→ mork8850: 终於阿 05/13 10:55
489F:→ yangtsur: 终於!! 有 ICECUBE 加持 05/13 10:55
490F:推 same60710: 终於 05/13 10:55
491F:推 kenneth52045: 终於 05/13 10:55
492F:推 amazingjohnn: 77777777777好久不见 05/13 10:55
493F:→ bboykay: 拜托Ice Cube每场都给我来! 05/13 10:55
494F:推 nigatsuki: 终於!!!!!! 05/13 10:55
495F:推 wa782653: 生气了 05/13 10:55
496F:推 xin114242: 终於阿 05/13 10:55
497F:推 angel1314: 终於炸出去了 05/13 10:55
498F:推 nightcrow: 终於哦 05/13 10:55
499F:→ zego41: 山本:这是谁 05/13 10:55
500F:推 wl2340167: 笑死77777 05/13 10:55
501F:推 pc152: He is back 05/13 10:55
502F:推 Luffier: 爱山本 05/13 10:55
503F:→ daydreamer13: 终於尻出来啦 05/13 10:55
504F:推 cat110211: 终於 05/13 10:55
505F:推 liuon: 终於HR了 山本:我可以那麽幸福吗 05/13 10:55
506F:推 sally09287: 终於挺山本 05/13 10:55
507F:推 cheric: 冰块灵气!!! 05/13 10:55
508F:推 lelemonkey: 学长! 05/13 10:55
509F:推 teata: 学长做事了 05/13 10:55
510F:推 Yjizz: 山本: 仙贝! 05/13 10:55
511F:推 DeuceNole: 终於Qq 05/13 10:55
512F:→ Tiger23: 果然要不播才会喷出去XD 05/13 10:55
513F:推 woddy: ICE 每个主场都来当主播吧 05/13 10:55
514F:→ s920223: 山本:学长还是爱我的! 05/13 10:55
515F:推 socharge: 他做到了 这老黑大谷救星啊 05/13 10:55
516F:推 pinkysecret: 终於~~~~ 05/13 10:55
517F:→ NowQmmmmmmmm: 这谁 05/13 10:55
518F:→ Tr3vyy: 果然只有ice cube才能解冻 05/13 10:55
519F:→ visviva: 学长今天2-2! 05/13 10:55
520F:推 dic: 终於 05/13 10:55
521F:推 webber04: 挖太照顾学弟了吧 这谁 05/13 10:55
522F:→ nepenthes7: 昨天才说他老了就开炮 05/13 10:55
523F:推 c251970: 终於轰了~~~~ 05/13 10:55
524F:→ SHOTN17: 他做到啦 外角终於没硬拉 往左打!! 05/13 10:55
525F:推 po5454: 山本:谢谢学长 05/13 10:55
526F:推 Romulus: 好久没喷啦!!!!!!!!!!!!!!! 05/13 10:55
527F:推 ohya111326: 终於射了 05/13 10:55
528F:→ crayon1988: 感谢IceCube 有料 气有顺一点了 05/13 10:55
529F:→ marx93521: 爱山本 还是打坏球 05/13 10:55
530F:→ jiaxie: 2-2,但是後天进冰箱 05/13 10:55
531F:推 ghostl40809: 终於打出来啦 05/13 10:55
532F:推 hsien28: 学长有挺了! 05/13 10:55
533F:→ Luffier: 学长好罩 05/13 10:55
534F:推 Mryuan: 要冻就怕了 05/13 10:55
535F:推 metro721: 有了 吐怨气啊 05/13 10:55
536F:→ xin114242: 而且是棒头耶 05/13 10:55
537F:推 seanlatias: 竟然 05/13 10:55
538F:→ daydreamer13: 看全场欢呼成这样也太有爱了吧 05/13 10:55
539F:→ pc152: 而且是反方向 05/13 10:55
540F:→ tulian: 千年等一回 05/13 10:55
541F:推 kazuuma: 终於 05/13 10:55
542F:推 rota: 他妈的 终於醒了 爽 05/13 10:55
543F:推 c914137: 竟然有挺学弟 05/13 10:56
544F:推 zhijiahu: 山本笑了 05/13 10:56
545F:→ ja000123: 大谷大家抢 前半局巨人打炸裂没人发 05/13 10:56
546F:→ same60710: 这样子明後天翔平还要先蹲板凳吗? 05/13 10:56
547F:→ po5454: 学长还是有爱的 05/13 10:56
548F:推 CCandyMan05: 想要拿那颗球回来xddddddd 05/13 10:56
549F:→ sally09287: 山本笑得开心 05/13 10:56
550F:→ dylancdylanc: 今天要猛打赏了吗 05/13 10:56
551F:推 akujiki: 这全垒打等快1个月了吧 05/13 10:56
552F:推 glen: 五月狂谷要来了 恐怖 05/13 10:56
553F:推 sunwit: 好久没挥出100以上了 05/13 10:56
554F:→ Tiger23: 难怪道奇这麽爱IceCube 05/13 10:56
555F:→ daydreamer13: 明明就冷很久尻一发而已 大家开心成这样 真有爱 05/13 10:56
556F:→ Romulus: 一脸如释重负的表情 05/13 10:56
557F:→ Gardenia0603: 帮山本了 05/13 10:56
558F:推 s6901130: 回本垒後 有明显松口气 05/13 10:56
559F:→ inschool: 萝卜 好 後天不休息了 05/13 10:56
560F:→ CaminoI: 还是山本先发的场 05/13 10:56
561F:推 cazy328: 山本好开心 05/13 10:56
562F:→ woddy: 假生涯首轰,笑死 05/13 10:56
563F:→ gotohikaru: 经典低头 05/13 10:56
564F:→ liuon: 大谷积超久 05/13 10:56
565F:推 KurtCobain: 学长爱山本 05/13 10:56
566F:→ metro721: 大家都在笑 05/13 10:56
567F:推 huangjyuan: 明天直接二刀了吧 等一下手感又跑掉 05/13 10:56
568F:→ NowQmmmmmmmm: 搞的好像生涯首轰一样 05/13 10:56
569F:推 sky001tp: 山本:学长在我投球时开轰了…怎麽可能 05/13 10:56
570F:→ zego41: 心中没有一丝一毫喜悦 05/13 10:56
571F:→ ohya111326: 木屐还是惨 05/13 10:56
572F:→ yangtsur: 希望力量能够回来,之前有好多球友咬到旦没力推出去 05/13 10:56
573F:→ SHOTN17: 经典头一低*2 = = 05/13 10:56
574F:→ dylancdylanc: 还差个2垒打 3垒打 05/13 10:56
575F:推 gache0824: 昨天就说今天回温,看吧 05/13 10:56
576F:→ jiaxie: 木屐 右外飞球OUT,连两飞 05/13 10:56
577F:推 pett: 萝卜:靠 这样明天我还要冰吗 上次猛打赏被萝卜冰 05/13 10:56
578F:→ pett: 到不会打球 05/13 10:56
579F:推 maikxz: 山本感到不妙中 05/13 10:56
580F:→ akujiki: 山本:学长这真的是你吗? 05/13 10:57
581F:推 vc39: 本来以为转播单位看到大谷打击觉得没看头 直接把画面都给I 05/13 10:57
582F:→ vc39: ce cub 结果就尻出去了 05/13 10:57
583F:推 hang1413: 真要挑剔 就是这球又是挑坏球出击 05/13 10:57
584F:→ nsk: https://i.mopix.cc/Ai2SOP.jpg 山本大笑中 05/13 10:57
585F:推 lafeelbarth: 用推的 05/13 10:57
586F:推 socharge: 明天改计划机率+50% 05/13 10:57
587F:→ daydreamer13: 山本:学长竟然在我投球的时候尻出来了 05/13 10:57
588F:推 tsanning: 大谷今天醒了 05/13 10:57
589F:推 same60710: 是说这球还是坏球欸XD 05/13 10:57
590F:→ daydreamer13: 保送! 05/13 10:57
591F:推 faratia: 看来不播场内道奇才会打球 05/13 10:58
592F:推 foxy0703: 山本表示:连续两场有打线支援真的能这麽幸福吗 05/13 10:58
593F:→ Romulus: Ice Cube是知名RAP歌手 YT上427万订阅 影片最多3.7亿播放 05/13 10:58
594F:推 SHOTN17: 至少他这颗没硬拉了 他再拉打这颗99.87%鸟滚 =w= 05/13 10:58
595F:→ Romulus: 然後他的主战场不是YT 05/13 10:58
596F:→ daydreamer13: 大谷如果反应速度正常其实很多坏球他都可以打 去年 05/13 10:58
597F:→ daydreamer13: 就一堆 但今年确实很多时候变成在追坏球 05/13 10:58
598F:推 zego41: 先把选球找回来吧 选得到好球就有机会开轰 05/13 10:58
599F:推 metro721: 是不是开场主播说的 这个投手对道奇... 05/13 10:59
600F:推 Amberla: 上一支是不是也是对巨人轰出来的 05/13 10:59
601F:→ Romulus: 在一般RAP界大概是传说级的存在 05/13 10:59
602F:→ daydreamer13: 前阵子几乎都是球拉太深 不确定是反应变慢还是怎麽 05/13 10:59
603F:→ daydreamer13: 样 不过能回温就太好了 05/13 10:59
604F:推 bboykay: Ice Cube刚刚应该可以重演一下他经典的"Damn~~~" 05/13 10:59
605F:推 huangjyuan: 真的不要休 上次连两场猛打之後 先发单刀後直接冷掉 05/13 10:59
606F:推 inschool: 其他人出局如风 05/13 11:00
607F:推 enzymes: 谢谢R大介绍,不用去喂狗查了 05/13 11:00
608F:推 woddy: 萝卜别放休 05/13 11:00
609F:推 wallaceboy: 大谷醒了太好了 05/13 11:00
610F:推 wa782653: 笑死 05/13 11:00
611F:推 wenhh88: 尻出来就翻白眼XD 05/13 11:00
612F:推 visviva: 希望今天有胜投 05/13 11:00
613F:推 SHOTN17: 笑死 那啥动作? 回应母星的召唤逆 05/13 11:00
614F:→ evadodoya: 去年国联冠军战G4第二轰也是坏球 05/13 11:02
615F:推 pett: 萝卜:上次被我搞到不会打球 这次该怎麽办 05/13 11:02
616F:推 woddy: 官网马上发文77777 05/13 11:02
617F:推 faratia: 萝卜开心吃饼 05/13 11:02
618F:推 CaminoI: 萝卜吃饼 XD 05/13 11:02
619F:推 freegreg: 看球吃零食 好过瘾 05/13 11:02
620F:推 zego41: 来人喂萝卜吃饼 05/13 11:02
621F:推 basala5417: 萝卜开心 05/13 11:03
622F:推 vc39: 好像芒果乾 05/13 11:03
623F:推 NowQmmmmmmmm: 来人啊喂萝卜吃饼 05/13 11:03
624F:推 bboykay: 罗伯在那边吃啥干贝,战国喔XDDDDDD 05/13 11:03
625F:推 yangtsur: 冲出康普顿这片是演当年AMP IceCube团体饶舌起源故事 05/13 11:03
626F:→ SHOTN17: 还是K不掉 可恶!! 05/13 11:03
627F:→ Tiger23: 阿赖椰子好犹豫要不要挑战XD 05/13 11:03
628F:推 s920223: 大谷开轰 萝卜心情大好 05/13 11:03
629F:推 arodisgod: 笑死 一直拍 05/13 11:03
630F:推 daydreamer13: 萝卜:我还有点饿 05/13 11:03
631F:推 Franc1224: 平野吃胃药,萝卜吃饼乾 05/13 11:03
632F:→ yangtsur: 这片很好看 IceCube角色由他儿子演.两人长超像 05/13 11:03
633F:推 sally09287: 萝卜惬意 05/13 11:03
634F:推 woddy: 省 05/13 11:03
635F:→ bboykay: 萝卜在致敬"智将佛之战国" 05/13 11:04
636F:→ Tiger23: 长得不像就可怕了XD 05/13 11:04
637F:推 inschool: 穿 05/13 11:04
638F:→ daydreamer13: 竟然穿了 05/13 11:04
639F:→ zego41: 鸟安穿 05/13 11:04
640F:推 jiaxie: D肉丝 2OUT 穿! 05/13 11:05
641F:→ bboykay: 另外加码,Ice Cube和Chris Tuck的儿子前阵子也拍了一部 05/13 11:05
642F:推 oomvp: 小胖也是低潮一阵子了 05/13 11:05
643F:推 orze04: 那还要休吗 05/13 11:05
644F:→ daydreamer13: K! 05/13 11:05
645F:→ inschool: 还是K 05/13 11:05
※ 编辑: citpo (49.216.128.21 台湾), 05/13/2026 11:06:32
646F:→ jiaxie: 3球K 05/13 11:06
647F:推 angel1314: Kkk 05/13 11:06
648F:推 jkl85621: KKKKK 05/13 11:06
649F:推 pett: 反正要不要休都是萝卜自己决定 大谷也随便他不出怪 05/13 11:06
650F:→ pett: 声 顶多惊讶 05/13 11:06
651F:→ bboykay: NHL的广告,两人致敬了自己老爸经典的Damn~~~ 05/13 11:06
652F:推 faratia: 比较神奇的大概是Ice Cube没有混黑帮,Rapper来说超难得 05/13 11:06
653F:推 reader2714: ..原来damn 是冰块喔..我之前都没注意到www 05/13 11:07
654F:→ bboykay: Damn是Ice Cube和Chris Tuck,真的太经典了 05/13 11:07
655F:推 daydreamer13: look at you, you would run from you! 05/13 11:08
656F:推 zxcghjko: 挑战失败 05/13 11:09
657F:推 Lawschool: 哈哈 乱挑 05/13 11:09
658F:推 zego41: 高了 05/13 11:09
659F:推 inschool: 太高 05/13 11:09
660F:推 faratia: 这算是前面太海骗到捕手挑战吗? 05/13 11:09
661F:推 nigatsuki: 可惜 05/13 11:09
662F:→ zxcghjko: 打高了 05/13 11:09
663F:推 cool8418: 打高了 05/13 11:09
664F:推 Yjizz: 104.4mph 47deg 打太高 不然出去 05/13 11:11
665F:推 crayon1988: 打线还是很凉 05/13 11:11
666F:推 jiaxie: 怎麽刚才好像听到报错打击者?提早说成黑松金? 05/13 11:11
667F:推 vgil: 山本自立自强啊 05/13 11:12
668F:推 oomvp: 道奇打线日常…era6的投手对上都化身塞扬 05/13 11:12
669F:推 metro721: 五月都凉啊 只有3场超过3分 6败4胜 05/13 11:13
670F:→ same60710: 这投手今年之前的成绩道奇打这样还是不太行 05/13 11:14
671F:推 SHOTN17: HFB ! 05/13 11:15
672F:推 metro721: 投得好 05/13 11:15
673F:推 SphereDavid: 今天山本真的鬼神 05/13 11:15
674F:推 alain: 还是好强啊 6k了 05/13 11:15
675F:推 faratia: 看赛前小卡这投手好像国联垫底的那种 05/13 11:15
676F:推 nepenthes7: 指叉美如画 05/13 11:15
677F:推 oomvp: 感觉今天会看到天能关门,怕 05/13 11:16
678F:推 daydreamer13: 用球数不错 可以多吃几局 05/13 11:16
679F:推 bboykay: 分数打多一点吧,今天山本可以吃七局的节奏阿~~~~~ 05/13 11:17
680F:→ nekomai: 出事 05/13 11:18
681F:→ siamn: 突然炸 05/13 11:18
682F:推 daydreamer13: 阿靠 05/13 11:18
683F:→ SorrowWind: 炸 05/13 11:18
684F:推 zxcghjko: 又炸 05/13 11:18
685F:推 inschool: 怎麽又 05/13 11:18
686F:推 foxey: 又被炸了山本 05/13 11:18
687F:推 jiaxie: 炸裂! 05/13 11:18
688F:推 NowQmmmmmmmm: …. 05/13 11:18
689F:推 angel1314: 又平…. 05/13 11:18
690F:推 Monetelliz: 真假啦 05/13 11:18
691F:推 woddy: 又被炸,真的不能称赞 05/13 11:18
692F:推 zego41: 又失投 05/13 11:18
693F:推 SHOTN17: 没下掉的指叉 = = 05/13 11:18
694F:→ CaminoI: 山本又被炸 追平 05/13 11:18
695F:推 crayon1988: 炸裂 05/13 11:18
696F:推 ohya111326: 又吃肉包 05/13 11:18
697F:→ bboykay: ....................怎麽都这种冷箭... 05/13 11:18
698F:推 nigatsuki: 平飞轰哦 05/13 11:18
699F:→ nigatsuki: 喔 05/13 11:19
700F:推 leo79415: 也太容易被尻了 05/13 11:19
701F:推 nepenthes7: 干 指叉肉包 05/13 11:19
702F:嘘 s920223: 不是吧= = 05/13 11:19
703F:推 visviva: 学长 SOS.. 05/13 11:19
704F:推 wa782653: 哇哩勒 05/13 11:19
705F:推 antidote: 超级自杀棒也 05/13 11:19
706F:推 oomvp: 呃…哭啊 05/13 11:19
707F:推 metro721: 又被轰 05/13 11:19
708F:推 ddog1010: 这球能被捞出去喔 05/13 11:19
709F:→ daydreamer13: 山本被89欺负 05/13 11:19
710F:推 Abyss0130522: 学长救我 05/13 11:19
711F:推 CavendishJr: 又一发 05/13 11:19
712F:推 luca714: 指叉失投了 05/13 11:19
713F:→ sally09287: QQ 05/13 11:19
714F:推 zoro86227: 被轰率也太高 05/13 11:19
715F:推 Lawschool: 守备组欸 05/13 11:19
716F:→ NowQmmmmmmmm: 被八九两棒各打一只 05/13 11:19
717F:推 i376ers: 阿勒 今年山本球威不行 05/13 11:19
718F:推 liuon: 又被轰 山本:学长救我 可以再来一支吗 05/13 11:19
719F:推 Romulus: ???????? 05/13 11:19
720F:推 lookers: 又来 05/13 11:19
721F:→ nekomai: 连尻 05/13 11:19
722F:→ jiaxie: 巨人8+9棒都炸裂 05/13 11:19
723F:→ antidote: 太扯啦 又 05/13 11:19
724F:→ yankees733: 山本近况真的不太好 05/13 11:19
725F:→ s920223: 山本领先不会投球是吧 05/13 11:19
726F:推 twofaceman: 肉包 05/13 11:19
727F:推 s6901130: 山本89病 05/13 11:19
728F:推 faratia: 被打烂 05/13 11:19
729F:→ zxcghjko: B2B 05/13 11:19
730F:推 arodisgod: 笑死 05/13 11:19
731F:→ CaminoI: B2B 崩 05/13 11:19
732F:推 FannWong: 惨 05/13 11:19
733F:推 marx93521: 山本又被炸 05/13 11:19
734F:→ daydreamer13: 三小 怎麽突然又炸 05/13 11:19
735F:推 mork8850: B2B 05/13 11:19
736F:→ SorrowWind: B2B 05/13 11:19
737F:推 same60710: 蛤???????? 05/13 11:19
738F:→ wl2340167: 又炸 05/13 11:19
739F:→ inschool: 双响?? 05/13 11:19
740F:→ foxey: b2b 还连炸 05/13 11:19
741F:推 strongb: ? 05/13 11:19
742F:推 FFMay: 都後段棒次,善心人士喔 05/13 11:19
743F:→ zego41: 山本杀手 05/13 11:19
744F:→ nekomai: 出大事出大事 05/13 11:19
745F:→ Tr3vyy: 又没了 05/13 11:19
746F:推 GooglePlus: 背靠背 05/13 11:19
747F:推 socharge: 忽快忽慢节奏比率今天增加 结果还是被轰 去 05/13 11:19
748F:→ same60710: 我看了什麽 05/13 11:19
749F:→ angel1314: B2B 05/13 11:19
750F:推 NowQmmmmmmmm: 又一只救命啊 05/13 11:19
751F:推 c140265: 还好被炸三支都是阳春 05/13 11:19
752F:→ nepenthes7: 连续两发XD 05/13 11:19
753F:→ SHOTN17: 双响 = = 05/13 11:19
754F:→ Gardenia0603: 背靠背 05/13 11:19
755F:推 enzymes: 山本阿...还是得多掉几分队友才会帮忙? 05/13 11:19
756F:→ s920223: ... 05/13 11:19
757F:推 nightcrow: 出事 05/13 11:19
758F:嘘 Axwell: 杀小 05/13 11:19
759F:推 grade1kimo: ??? 05/13 11:19
760F:推 jimmich19: 发球机? 05/13 11:19
761F:推 happy12: 又?! 05/13 11:19
762F:→ nigatsuki: 山本还好吗……. 05/13 11:19
763F:推 ghostl40809: 这发好平 然後B2B == 05/13 11:19
764F:推 yufat: 猪羊变色 05/13 11:19
765F:推 wcccwccc: B2B 05/13 11:19
766F:推 seanlatias: 山本是不是不想赢 05/13 11:19
767F:推 webber04: 丸了 05/13 11:19
768F:→ woddy: b2b 05/13 11:19
769F:推 cat110211: B2B… 05/13 11:19
770F:推 Luffier: 山本出事啦 05/13 11:19
771F:→ ohya111326: 山本肉包好吃 05/13 11:19
772F:推 Yuko300: 爆爆乐 05/13 11:19
773F:推 po5454: ??? 05/13 11:19
774F:→ lookers: 巨人跟今天勇士都是8.9两棒在打 05/13 11:19
775F:推 hexokinase: 强阿巨人 05/13 11:19
776F:推 cheric: ?? 05/13 11:19
777F:→ CaminoI: 球是山本自己配的 所以…… 05/13 11:19
778F:推 SphereDavid: 炸裂 05/13 11:19
779F:→ metro721: 乾 哈哈 05/13 11:19
780F:推 mookiesfan: ? 05/13 11:19
781F:→ zxcghjko: 完蛋 05/13 11:19
782F:→ ddog1010: 今天变发球机啦 05/13 11:19
783F:→ jiaxie: 天啊!B2B 炸裂 05/13 11:19
784F:推 fs700527: 哇 05/13 11:19
785F:推 visviva: ...今天三轰 05/13 11:19
786F:推 JWalk77: 山本太肉包了吧 05/13 11:19
787F:推 hbrel: …. 05/13 11:19
788F:推 beaglebubu: MeatBall 05/13 11:19
789F:→ Movice: 甜 05/13 11:19
790F:→ sally09287: 学长也做不了…… 05/13 11:19
791F:→ daydreamer13: 巨人队8+9好凶啊 05/13 11:19
792F:推 hoolala: 被三轰 天啊 05/13 11:19
793F:→ SHOTN17: 风云变色 05/13 11:19
794F:→ DendiQ: 好烂 05/13 11:19
795F:推 carlchang092: 又 05/13 11:19
796F:推 xrayxrayxray: 突然b2b 05/13 11:19
797F:推 jkl85621: 爆 05/13 11:19
798F:推 squalljack: B2B ,山本还想要胜投阿 05/13 11:19
799F:→ kuchibu: 阿伸掰掰 05/13 11:19
800F:→ amazingjohnn: B2B!!!哭啊 我大山本瞬间变败投候选 05/13 11:20
801F:推 lafeelbarth: 全垒打大赛 05/13 11:20
802F:→ oomvp: 山本被89棒虐,太惨了吧 05/13 11:20
803F:→ Gardenia0603: 优质先发快没了 05/13 11:20
804F:→ liuon: 山本:学长 还是再2支好了 05/13 11:20
805F:嘘 Axwell: 山本:学长救我 05/13 11:20
806F:推 guoja: ??? 05/13 11:20
807F:→ Diaw0803: 哭阿 捕手双响炮 05/13 11:20
808F:→ crayon1988: 自己配球自己负责 05/13 11:20
809F:→ nepenthes7: 这两球太甜了啦 05/13 11:20
810F:→ foxey: 失投炸连发啊 05/13 11:20
811F:→ Monetelliz: 自杀棒狂尻? 05/13 11:20
812F:推 akujiki: 山本压不住了 05/13 11:20
813F:推 neo74214: 在搞啥,还是後段棒次耶 05/13 11:20
814F:→ s6901130: 甜 05/13 11:20
815F:→ marx93521: 惨整个爆炸 05/13 11:20
816F:推 ganshins: 球都投太甜了,是瞧不起89棒喔... 05/13 11:20
817F:推 evelynyaui: 太扯了吧 05/13 11:20
818F:→ bboykay: 大谷: 你是用这种方法再逼我强行恢复吗............. 05/13 11:20
819F:推 pink0518: 都投到内角高了 05/13 11:20
820F:推 asutoranakan: 山本可能很少被这样连炸喔 05/13 11:20
821F:推 ja000123: 连续肉包 被89咬 05/13 11:20
822F:→ angel1314: 道奇这如风打线能追吗? 05/13 11:20
823F:推 jason0829: 山本不爱山本 05/13 11:20
824F:推 sky001tp: B to B 05/13 11:20
825F:→ Romulus: 8+9耶 05/13 11:20
826F:→ s920223: 山本:逆境我自己创造 05/13 11:20
827F:→ kuchibu: 他眼角泛泪了 05/13 11:20
828F:推 yksltpcc: 惨不忍睹 05/13 11:20
829F:→ Tiger23: 被状况最差的Bader轰,然後被9棒双响 05/13 11:20
830F:→ nepenthes7: 山本对後段是都再乱投逆 05/13 11:20
831F:推 NewAlbert: 坏了 05/13 11:20
832F:→ zego41: 山本无奈 每次失投都被尻 05/13 11:20
833F:推 lcw33242976: 学长双响救一下 05/13 11:20
834F:→ webber04: 学长来一发满贯救救学弟吧 都变图书馆了 05/13 11:20
835F:→ wl2340167: 最近都好容易被炸 05/13 11:20
836F:→ daydreamer13: 8+9拿棒子 真的好凶 05/13 11:20
837F:→ ohya111326: 3发 没人要发炸裂文 05/13 11:20
838F:推 lookers: 三轰要快20k才补得回来 还不能有四坏球 05/13 11:20
839F:推 vgil: 惨 打线涝塞程度GG了 05/13 11:20
840F:→ CaminoI: 问他自己怎麽配球的阿 05/13 11:20
841F:推 meyu1166: 蛤………!? 05/13 11:20
842F:推 Yjizz: B2B Haase 又炸 05/13 11:20
843F:→ SphereDavid: 学长…..救我 05/13 11:21
844F:推 rbki3: 自己丢烂喔 大谷前辈已经有尻了 05/13 11:21
845F:→ luck945: 感觉跟大谷之前一样投末段棒次偷省力 05/13 11:21
846F:推 Zzell: 说什麽太甜 前面强棒还常常投中间咧 05/13 11:21
847F:推 NishiYuki: 山本真弱 05/13 11:21
848F:→ woddy: 生涯第一次挨三轰,QQ 05/13 11:21
849F:→ s6901130: 好啦 没关系 好好投世界大赛就好 05/13 11:21
850F:推 hsuans: 听说有人提到大豆?? 05/13 11:21
851F:→ yankees733: 山本连续4场先发丢3分以上 05/13 11:21
852F:推 yuenwwjd: 发球机 05/13 11:21
853F:推 AAABE: 太扯 05/13 11:21
854F:→ metro721: 对手只要4分 道奇就没力了 05/13 11:21
855F:推 crayon1988: K 05/13 11:21
856F:推 liuon: 山本考验学长到底有多爱他 05/13 11:21
857F:→ socharge: 三台日制全垒打发球机 明天大谷又要两支吗 05/13 11:21
858F:推 sharkmew: 真的很好轰欸 05/13 11:21
859F:推 kaybear3001: 被8.9棒背靠背484想省力投 05/13 11:22
860F:→ daydreamer13: 真的意想不到 投顺顺的 然後突然就被B2B猫 05/13 11:22
861F:→ nepenthes7: 不是八九棒 只好全力K 05/13 11:22
862F:推 inschool: 看起来投得不错 结果挨三轰 05/13 11:22
863F:→ nigatsuki: 二出局後这K得来不易啊 05/13 11:22
864F:推 SHOTN17: 好人厚厚 05/13 11:22
865F:推 NowQmmmmmmmm: 对前面棒次投那麽好结果八九棒打烂 05/13 11:22
866F:推 zxcghjko: 山本今年很容易挨轰的感觉 05/13 11:22
867F:推 ddog1010: 绝境山本 先把自己搞到绝境 05/13 11:22
868F:推 pc152: 大意了没有闪 05/13 11:22
869F:嘘 beaglebubu: 啊怎麽巨人炸裂没人要Po喔 05/13 11:22
870F:推 Alderamin: 乱源:学长今天开轰 05/13 11:22
871F:推 rbki3: 还好有韩国仔送幸福 05/13 11:23
872F:→ kaybear3001: 8.9棒今年完全没打过全垒打 想省力结果被惩罚了 05/13 11:23
873F:→ kuchibu: 还是韩国人贴心 没有伤口洒盐 05/13 11:23
874F:→ sharkmew: 可以自己po啊,mlb每天都很多人炸 05/13 11:23
875F:→ nepenthes7: 只是球速根本没下降就是 都跑到肉包位XD 05/13 11:23
876F:推 JustWinslow: 蓝鸟 :那麽好打? 05/13 11:23
877F:推 PttDreaming: 嘘的是不会自己po吗 05/13 11:23
878F:推 adad48362: 不会自己po喔废话一堆 05/13 11:23
879F:→ nepenthes7: 大概就是衰洨而已 05/13 11:23
880F:推 lafeelbarth: 笑死 05/13 11:23
881F:→ basala5417: 自己不Po还嘘 05/13 11:23
882F:嘘 money1943: 又要问天了 道奇只会打冲天炮 05/13 11:24
883F:推 faratia: 被打的好像都是位置甜的死直球 05/13 11:24
884F:推 liuon: 山本:学长你举一反三 05/13 11:24
885F:推 daydreamer13: 再炸一发救一下学弟 05/13 11:24
886F:推 woddy: 大谷快救学弟 05/13 11:24
887F:推 lcw33242976: 干嘛自己不po?只会当伸手牌吗? 05/13 11:24
888F:→ nigatsuki: 差点让他跑到 05/13 11:24
889F:推 metro721: 接近 05/13 11:24
890F:→ Kawow: 有一颗偏高的指叉被炸啦 05/13 11:24
891F:推 mork8850: 学长JOJO我 05/13 11:24
892F:推 NowQmmmmmmmm: 山本:大谷a梦救救我 05/13 11:24
893F:推 Getbackers: 小金想念3A了 05/13 11:24
894F:推 Ferrari360: 学长要再帮一下吗 05/13 11:25
895F:推 Tr3vyy: 学长救窝 05/13 11:25
896F:→ siamn: 有够闪 05/13 11:25
897F:推 inschool: 3坏 05/13 11:25
898F:→ Ferrari360: 屁股真翘XD 05/13 11:25
899F:推 zxcghjko: 闪 05/13 11:25
900F:推 socharge: BB 别虾 05/13 11:25
901F:→ Getbackers: 捕手碰 05/13 11:25
902F:→ daydreamer13: 炸一发就开始闪 05/13 11:25
903F:推 arodisgod: 大谷躺平着上垒 05/13 11:25
904F:推 enzymes: 选球! 05/13 11:25
905F:→ NowQmmmmmmmm: 不给打了 05/13 11:25
906F:推 crayon1988: 三轰是红中卡特 压线指叉 四号位直球 05/13 11:25
907F:推 nepenthes7: 干 不给打 05/13 11:25
908F:推 zego41: 很敢挑战喔 05/13 11:25
909F:→ zxcghjko: 削边 05/13 11:25
910F:→ NowQmmmmmmmm: 擦毛 05/13 11:25
911F:推 Yjizz: 压线 赚一个BB 05/13 11:25
912F:推 dtdon1699: 睡醒就没好球了 05/13 11:25
913F:→ lafeelbarth: 给我回来 05/13 11:25
914F:→ inschool: 还是BB 05/13 11:25
915F:推 SHOTN17: 有耐心就对了 别急 05/13 11:26
916F:→ jiaxie: ABS挑战中 05/13 11:26
917F:推 CaminoI: 还是BB 05/13 11:26
918F:推 carlchang092: 还是BB了XDDD 05/13 11:26
919F:→ siamn: 结果还不是BB 05/13 11:26
920F:推 kinve1014: 听到连两天不能打 今天开始选球又开炮 05/13 11:26
921F:→ crayon1988: 还敢睡醒 不给你打了 05/13 11:26
922F:推 angel1314: 还是bb 05/13 11:26
923F:→ Gardenia0603: 今天状态不错哦 05/13 11:26
924F:推 woddy: 多投一颗 05/13 11:26
925F:→ zxcghjko: 还是BB 超闪 05/13 11:26
926F:推 kevinhong314: 还是保送 05/13 11:26
927F:→ Tr3vyy: 一样 05/13 11:26
928F:→ NowQmmmmmmmm: 还是保送了还多投一颗 05/13 11:26
929F:推 shomasaki: 好闪 05/13 11:26
930F:推 leo79415: 一轰以後又在闪 真的是不好打 05/13 11:26
931F:→ Ferrari360: 才醒一下就不给打XDDDDDy 05/13 11:26
932F:→ basala5417: 浪费球数 05/13 11:26
933F:→ hydra7: 不给打了 05/13 11:26
934F:推 metro721: 哈哈 05/13 11:26
935F:→ jiaxie: 笑死 连看5球选到BB 05/13 11:26
936F:→ daydreamer13: 大谷棒子冷成这样 才猫一发就开始闪 05/13 11:26
937F:→ inschool: 难得射一发就没球打了 05/13 11:26
938F:推 lcw33242976: 看起来走出低潮就不给打了 QQ 05/13 11:26
939F:→ JesterCheng: 有威胁才会被闪 05/13 11:26
940F:推 sally09287: 浪费球数 05/13 11:26
941F:推 ddog1010: 第一球能选掉不简单 05/13 11:26
942F:→ daydreamer13: 就是不要给大谷找回节奏 05/13 11:26
943F:推 akujiki: 投手就不敢投他了啊 05/13 11:26
944F:推 i376ers: 炸了一发投捕就闪了 05/13 11:26
945F:推 nightcrow: 终究要BB,何苦多投一颗 05/13 11:26
946F:→ lcw33242976: 到底多怕 05/13 11:26
947F:→ SHOTN17: 能上垒就对球队有帮助 千万别急着打坏球 05/13 11:26
948F:推 oomvp: 今天有HR有BB,醒了! 05/13 11:26
949F:推 visviva: 学弟 我只能帮到这了QQ 05/13 11:26
950F:→ nepenthes7: 炸了一发不闪是棒槌 05/13 11:26
951F:推 s6901130: SSR昨天只被尻一支 是不是郎西>山本 05/13 11:27
952F:→ siamn: 大哥啊啊啊…… 05/13 11:27
953F:推 Getbackers: dp 05/13 11:27
档案过大!部分文章无法显示
954F:推 gotohikaru: 厚厚接杀小金 05/13 12:06
955F:→ anniewawa: 打不好防守也漏风是在哭喔 05/13 12:06
956F:推 yufat: gg无望 05/13 12:06
957F:推 Znps: 打线太凉了 难追 05/13 12:06
958F:推 same60710: 大谷能再来一发的话还有机会QQ 05/13 12:06
959F:推 metro721: 同乡 05/13 12:06
960F:推 liuon: 可惜了 满扎实的 05/13 12:06
961F:→ jiaxie: Kim 右外飞球OUT 05/13 12:06
962F:推 dtdon1699: 防守真好啊 05/13 12:06
963F:推 befly10015: 谷 再一发嗷嗷 05/13 12:06
964F:推 CaminoI: 换投 05/13 12:06
965F:推 oomvp: 让大谷刷一下吧 05/13 12:06
966F:推 snoppy713: 最近打这麽烂还怕啊??哈哈哈哈哈 05/13 12:07
967F:推 yangtsur: 才刚醒就要讨论 不是吧 05/13 12:07
968F:→ Gardenia0603: 这麽谨慎 05/13 12:07
969F:→ yufat: 干嘛换啊 05/13 12:07
970F:推 Tr3vyy: 会怕? 05/13 12:07
971F:→ dtdon1699: 不给打 05/13 12:07
972F:推 asutoranakan: 所以现在就在讨论大谷真的太早,就算再强的投手, 05/13 12:07
973F:→ jiaxie: 这麽看得起,换投对付 05/13 12:07
974F:→ Kawow: 初速88mph 扎实在哪? 05/13 12:07
975F:→ Tiger23: 当作季後赛在打 05/13 12:07
976F:→ CaminoI: 前面才轰 会怕阿 05/13 12:07
977F:推 littlebug421: 刚抓到一些手感就针对成这样XDDD 05/13 12:07
978F:推 s6901130: 明明状况差 但还是都很谨慎 05/13 12:07
979F:→ asutoranakan: 要一整年完全不炸任何一场太难了,大谷只要有一场 05/13 12:07
980F:→ befly10015: 这麽怕小水枪干嘛!! 05/13 12:07
981F:→ asutoranakan: 投的像今天山本这样,也不用很炸,Era就狂飙了 05/13 12:07
982F:推 i376ers: 很怕耶 大谷才尻一只而已 状况哪突然变好 05/13 12:07
983F:推 a232050: 巨谨慎 05/13 12:07
984F:推 Rentch: 4分不要这样啦 05/13 12:07
985F:推 lcw33242976: 今天道奇唯一一个轰的 会怕吧 05/13 12:07
986F:嘘 money1943: 追不回来的 05/13 12:08
987F:→ dododododora: 领先4分怕成这样 05/13 12:08
988F:→ yangtsur: 蓝鸟教练刚刚是打电话给巨人吗? 05/13 12:08
989F:→ a333901: 这才是正确的 萝卜死不换硬要偷 05/13 12:08
990F:→ Diaw0803: 没在怕 05/13 12:08
991F:推 webber04: 太狠了巴 人家集气这麽久的信心好意思吗 05/13 12:08
992F:→ asutoranakan: 而且山本今天看起来状况有没有不好,球还是很会跑 05/13 12:09
993F:推 leo79415: 凉平在射一发吧 05/13 12:09
994F:→ asutoranakan: ,控球也在线,但就是被炸了 05/13 12:09
995F:推 CPBLlincecum: Hentges跑来巨人啦 05/13 12:09
996F:推 i376ers: 一样跟不到直球 05/13 12:09
997F:推 wenhh88: 山本:学长救我 05/13 12:09
998F:推 Ferrari360: 换投就别闪了吧 05/13 12:09
999F:推 lcw33242976: 山本就少数的失投被逮到 05/13 12:09
1000F:→ Axwell: 杀小 05/13 12:10
1001F:推 jiaxie: 瞎挥一球 05/13 12:10
1002F:推 angel1314: K味 05/13 12:10
1003F:→ MK47: 山本:学长救我 05/13 12:10
1004F:→ jiaxie: 应该会被吊中 05/13 12:10
1005F:→ dododododora: K 05/13 12:10
1006F:推 inschool: 凉凉凉 05/13 12:10
1007F:推 CaminoI: 吃K 05/13 12:11
1008F:推 uranuss: 大谷敢不敢再依发 05/13 12:11
1009F:→ Diaw0803: 靠 怎又开始虾辉 05/13 12:11
1010F:推 snoppy713: 就跟你说怕屁XD 05/13 12:11
1011F:推 s920223: K 05/13 12:11
1012F:推 Znps: 凉 05/13 12:11
1013F:推 i376ers: 轻松吃K 05/13 12:11
1014F:推 befly10015: 选球还是很…… 05/13 12:11
1015F:推 metro721: 虾 05/13 12:11
1016F:推 Beakidd: 哈哈,必K 05/13 12:11
1017F:→ angel1314: 还是烂球看不清楚 05/13 12:11
1018F:推 yufat: 超好笑 恢复这鸟样 05/13 12:11
1019F:推 Tr3vyy: 凉 05/13 12:11
1020F:推 yangtsur: 被吊 05/13 12:11
1021F:推 same60710: 哭啊 一堆大坏球一直挥 05/13 12:11
1022F:→ jiaxie: 笑死 超低曲球吊中挥空K 05/13 12:11
1023F:推 liuon: 凉了 05/13 12:11
1024F:推 Yjizz: 选不掉... 05/13 12:11
1025F:推 socharge: 不虾不对劲 一场至少要吃一只 05/13 12:11
1026F:→ anniewawa: 要输到脱裤了吗 05/13 12:11
1027F:推 leo79415: 站着不挥就上垒了 一职虾辉 05/13 12:11
1028F:推 Axy8: 道奇不会被横扫吧 05/13 12:11
1029F:推 sunwit: 恢复了.开始乱挥爆投球 05/13 12:11
1030F:→ Beakidd: 捞一堆大坏球 05/13 12:11
1031F:嘘 money1943: 凉了 道奇都打坏球 05/13 12:12
1032F:→ metro721: 牛棚惨 打线凉 怎麽赢 05/13 12:12
1033F:推 lcw33242976: gg 山本这场已凉去 05/13 12:12
1034F:→ Getbackers: 果然明天还是休息的好 05/13 12:13
1035F:→ same60710: 话说道奇球员名单 昨天丢超烂那个投手还没被裁啊... 05/13 12:13
1036F:推 ggy3218: 巨人果然是道奇杀手 05/13 12:13
1037F:→ metro721: 火球男 05/13 12:13
1038F:推 myeunji: 巨人加油! 05/13 12:13
1039F:→ MK47: XDDDD 05/13 12:14
1040F:推 yufat: 这队死屍一样怎麽打季後赛 05/13 12:15
1041F:推 jiaxie: D肉丝3Kです! 05/13 12:15
1042F:→ asd45654: 打教 薪水小偷? 05/13 12:17
1043F:→ anniewawa: 整队打击已严重失衡 05/13 12:19
1044F:→ Getbackers: 有预感明天大谷投手就会被校正回归了 05/13 12:19
1045F:推 sasmwh561: 巨人6:2 恭喜巨人 05/13 12:19
1046F:推 strike1025: 4分怎追 真凉 05/13 12:20
1047F:推 linedrive: 没分了啦 05/13 12:21
1048F:推 freegreg: BETTS 打击率 .167 嘻嘻 05/13 12:22
1049F:推 faratia: 头一低 05/13 12:23
1050F:推 Getbackers: 头一低一低 05/13 12:23
1051F:→ ohya111326: 木屐打击真的回不来了吗? 05/13 12:23
1052F:推 grade1kimo: 感觉会被横扫笑死 05/13 12:23
1053F:推 SHOTN17: 经典头一低*3 = = 05/13 12:23
1054F:推 roylee1214: 头一低 05/13 12:23
1055F:推 Amberla: 今天不是一堆滚地球就是冲天炮 05/13 12:24
1056F:推 faratia: 今天得分是不是都是大谷跑回来的? 05/13 12:25
1057F:推 yuan0119: 最近有过後段比赛逆转吗 05/13 12:25
1058F:→ Diaw0803: 鸟飞>头一低 05/13 12:26
1059F:推 jiaxie: Freeman 满球数选到BB 05/13 12:26
1060F:推 metro721: 凹到保送 05/13 12:26
1061F:推 yufat: 塔克老师好爱挥这种 05/13 12:26
1062F:→ asd45654: 还真没有 打鱼那场後打线彻底废了 05/13 12:26
1063F:推 inschool: 还能起舞吗 05/13 12:26
1064F:推 ils0104: 塔克赞 05/13 12:26
1065F:推 SHOTN17: 终於 05/13 12:26
1066F:→ jiaxie: 塔克 右外落地DOUBLE 05/13 12:26
1067F:→ metro721: 塔克有业绩了 05/13 12:26
1068F:推 MK47: 塔客老师都打自己的 其他人冷或热都不影响他XD 05/13 12:27
1069F:推 liuon: 塔克老师上班了 05/13 12:27
1070F:推 dtdon1699: 塔克老师真的是活在自己世界 05/13 12:27
1071F:推 webber04: 影帝来一发吧 05/13 12:27
1072F:推 Ferrari360: 影帝帮帮忙~~~ 05/13 12:27
1073F:→ jiaxie: 希望这局追个一两分 05/13 12:27
1074F:→ metro721: 影帝来啊 给大家一点希望 05/13 12:28
1075F:→ jiaxie: 闪影帝抓盲西? 05/13 12:28
1076F:推 JWalk77: 满垒 05/13 12:28
1077F:推 inschool: 满垒 05/13 12:28
1078F:推 zxcghjko: 满垒 05/13 12:28
1079F:推 arlfasamue: 追平分上来了 05/13 12:28
1080F:→ MK47: 大场面要来了吧 05/13 12:28
1081F:→ Diaw0803: 要满贯炮了吗 05/13 12:28
1082F:推 litpepper: 满垒 05/13 12:28
1083F:推 Getbackers: 眼镜一棒追平的机会来了 05/13 12:28
1084F:→ zxcghjko: Muncy炸他 05/13 12:28
1085F:→ jiaxie: Smith 选到BB。1OUT 满垒的道奇! 05/13 12:28
1086F:→ webber04: 大肠面线!! 05/13 12:28
1087F:推 grade1kimo: 噢不 满垒好怕中计 05/13 12:28
1088F:推 jerrysaikou: 满垒计 05/13 12:28
1089F:推 p369369963: 忙西加油 05/13 12:28
1090F:推 myeunji: dp对会继续dp吗 05/13 12:28
1091F:推 yufat: 忙西靠你了 05/13 12:28
1092F:推 c251970: 满垒啦!!!! 05/13 12:28
1093F:推 liuon: 忙西哥该上班了 05/13 12:29
1094F:→ inschool: 会怕吼 05/13 12:29
1095F:→ Ferrari360: 芒西炸吧~~~~~~~~~~~~~~~~~~~~~~~~~ 05/13 12:29
1096F:推 J19911209: 满贯吗 05/13 12:29
1097F:→ benboy: 满垒计? 05/13 12:29
1098F:推 SHOTN17: 抓左打眼镜!? 05/13 12:29
1099F:推 i376ers: 满垒计 05/13 12:29
1100F:推 teata: 来个满贯炮吧! 05/13 12:29
1101F:→ metro721: 追平分上打击区 05/13 12:29
1102F:→ CaminoI: 大好机会 05/13 12:29
1103F:→ anniewawa: 看看能回来几分 05/13 12:29
1104F:推 Ricky0421: 大局来了喔 躲人闷了整场 05/13 12:29
1105F:推 haaland: 满垒计预备备 05/13 12:29
1106F:推 wl2340167: 一定中计 道奇打脸我! 05/13 12:29
1107F:推 hexokinase: 还要偷... 05/13 12:29
1108F:推 Beakidd: 道奇久违的GS,是不是该来了? 05/13 12:29
1109F:→ acerfit121: 中计啦 这还要看吗 05/13 12:29
1110F:推 George8: 不换会出事 05/13 12:29
1111F:嘘 money1943: 敢不敢尻 05/13 12:29
1112F:推 nicefeel: Muncy要当英雄了吗? 05/13 12:30
1113F:推 Yjizz: 追平分都在垒 05/13 12:30
1114F:推 joanna1212: 忙西再来一发GS啊啊啊啊啊 05/13 12:30
1115F:推 Yuko300: 两个大炮 肯定有2分…吧 05/13 12:30
1116F:→ money1943: 来个满贯炮 一辈子球迷 05/13 12:30
1117F:推 wallaceboy: 忙西炸一发吧 05/13 12:30
1118F:推 xpoooqx: 敢不敢 05/13 12:30
1119F:→ benboy: 还好没挑战 消边 05/13 12:30
1120F:推 yuan0119: 来个中计吧 05/13 12:30
1121F:推 cdsjquiz: 敢不敢 05/13 12:31
1122F:推 dtdon1699: +10眼镜 05/13 12:31
1123F:推 inschool: 挖 不拍 05/13 12:31
1124F:推 antidote: kkkkkkkk 05/13 12:31
1125F:推 faratia: 挑战存过年 05/13 12:31
1126F:推 George8: 为啥不挑战 05/13 12:31
1127F:→ Yuko300: 挑战啊? 05/13 12:31
1128F:推 mikilin23: 干嘛不挑战 05/13 12:31
1129F:推 linedrive: 一定没分啦 05/13 12:31
1130F:推 zxcghjko: 准备中计 05/13 12:31
1131F:→ dododododora: K 05/13 12:31
1132F:推 Ferrari360: 蛤 不拍?? 05/13 12:31
1133F:推 yang826: QQ 05/13 12:31
1134F:推 same60710: 这有压到吗? 05/13 12:31
1135F:推 caca13140405: 不挑战喔 05/13 12:31
1136F:→ benboy: 不挑战? 05/13 12:31
1137F:→ wallaceboy: 大狗来一发 05/13 12:31
1138F:推 CaminoI: 可以挑战的 05/13 12:31
1139F:推 i376ers: 干嘛不挑战阿 05/13 12:31
1140F:推 knightjames: K 05/13 12:31
1141F:推 yufat: 欸?????????? 05/13 12:31
1142F:推 joanna1212: 为什麽不挑战...... 05/13 12:31
1143F:推 metro721: k 05/13 12:31
1144F:推 SHOTN17: 抓完左打 换右投 05/13 12:31
1145F:推 MK47: 为啥不挑战阿?现在也算关键时刻不是吗 05/13 12:31
1146F:推 Axy8: 为什麽不挑战啊 05/13 12:31
1147F:推 grade1kimo: 到底在干嘛啊 05/13 12:31
1148F:推 Beakidd: 怎不挑战啊,八下了欸 05/13 12:31
1149F:推 gotohikaru: 剩两次就算失败也值得用吧 05/13 12:31
1150F:推 hpfan: 不挑战也太可惜 05/13 12:31
1151F:推 maimai2063: 傻喔 不挑战 05/13 12:31
1152F:→ cdsjquiz: 这情况都不拍喔? 05/13 12:31
1153F:推 jiaxie: 这球有可能是0.1" 05/13 12:31
1154F:→ StrKO: 不挑战喔 05/13 12:31
1155F:→ Tiger23: 怎麽不挑战,还有两次 05/13 12:31
1156F:→ wl2340167: 没削到 应该挑战的 05/13 12:31
1157F:推 dachiyun: 为什麽不挑战啊 05/13 12:31
1158F:推 TakKoshi: 八局了还不挑战 05/13 12:31
1159F:推 nightcrow: 没挑战亏爆 05/13 12:31
1160F:→ xpoooqx: 不挑战是留着生利息喔 05/13 12:31
1161F:→ benboy: 忙西没把握吗QQ 05/13 12:31
1162F:嘘 LaserLi: 为什麽不挑战 05/13 12:31
1163F:嘘 s920223: 不挑战? 05/13 12:31
1164F:推 liuon: 没挑战太可惜了 05/13 12:31
1165F:推 pc152: 为啥不挑战 05/13 12:32
1166F:→ same60710: 欸不是 道奇不还有2次挑战权吗 05/13 12:32
1167F:→ yufat: 他是忘记还有挑战吗 05/13 12:32
1168F:推 ja000123: 都八局了 为什麽不挑战? 05/13 12:32
1169F:推 p369369963: 怎麽不拍头啊 05/13 12:32
1170F:推 hexokinase: 自己也觉得是好球 05/13 12:32
1171F:推 zego41: 可能觉得有削边 05/13 12:32
1172F:→ grade1kimo: 是要省到明天喔 05/13 12:32
1173F:推 ludoren: 关键时刻反而不挑战 05/13 12:32
1174F:→ pink0518: 这情况不挑战喔 05/13 12:32
1175F:推 Howard1420: 道奇怎麽感觉不太喜欢挑战 05/13 12:32
1176F:→ Axy8: 忙西是忘了吗我傻眼 05/13 12:32
1177F:→ i376ers: 忙西的辈分不能挑战吗zzzzz 05/13 12:32
1178F:→ StrKO: 看来是不能赢 05/13 12:32
1179F:推 forgetwen: 今天这主审满烂的 05/13 12:32
1180F:→ George8: 凉去 05/13 12:32
1181F:推 kkk890210: 不挑战留着干嘛啦 还有两次欸 05/13 12:32
1182F:推 ripeChu10141: 挑战留着下场用 05/13 12:32
1183F:→ Yuko300: 8局满垒2次不挑战 05/13 12:32
1184F:推 gn7722: 没挑战,笑死 05/13 12:32
1185F:→ anniewawa: 一分都挤不回来 05/13 12:32
1186F:推 Getbackers: 小中计吗 05/13 12:32
1187F:推 GuYueHu: 这个在挑战时机表上很有挑战价值吧 为什麽不??? 05/13 12:32
1188F:→ s920223: 道奇是挑战失败会罚钱484 05/13 12:32
1189F:推 mose56789: 都八局下了还有两次 怎麽样都该挑战== 05/13 12:32
1190F:推 lupin1970: 眼镜你.. 05/13 12:32
1191F:嘘 FOREVER49KG: 留挑战是要干嘛 05/13 12:32
1192F:→ metro721: 帕黑当英雄吧 05/13 12:32
1193F:推 LuLoFun: 挑战留着明天用吗 05/13 12:32
1194F:推 arlfasamue: 削边那球印象太强了. 05/13 12:32
1195F:嘘 money1943: 道奇到底挑战留着干嘛 05/13 12:32
1196F:推 kaybear3001: 他自己也觉得是好球当然没挑战 05/13 12:32
1197F:推 sunwit: 自己都放弃投降了 05/13 12:32
1198F:推 stu25936: 挑战要放着生利息是吧? 05/13 12:32
1199F:推 zxc29385657: 道奇的打者到底多不爱挑战 05/13 12:32
1200F:→ gn7722: 关键判决不挑战,北七 05/13 12:32
1201F:→ Axy8: 挑战失败也没差啊 满垒欸 05/13 12:32
1202F:推 jrdoff: 至少也要挑战一下吧 05/13 12:32
1203F:推 korzen: 他可能觉得这很明显是个好球啊 这才是棒球醍醐味XDD 05/13 12:32
1204F:推 JWalk77: https://i.verb.tw/ftilBQmE.jpg 05/13 12:32
1205F:→ benboy: 2好了八局下应该可以挑战了 05/13 12:32
1206F:推 cklovework: 应该要挑战,不知道在想甚麽 05/13 12:32
1207F:推 roylee1214: 为什麽不挑战 八局满垒 05/13 12:32
1208F:→ benrun: 这种球不挑战是…? 05/13 12:32
1209F:→ JWalk77: 这球很接近啦 05/13 12:32
1210F:嘘 lovemj88: 省到下一场用吗 05/13 12:32
1211F:→ zego41: 外角看不比较不清楚也正常 05/13 12:32
1212F:→ anniewawa: 大中计就都去领绳吧 05/13 12:32
1213F:→ mose56789: 但可能思考时间就没这麽多吧 没办法 05/13 12:32
1214F:→ Beakidd: 8下,满垒关键时刻,不挑战,服了道奇 05/13 12:32
1215F:嘘 unrealstars: 可能有下严禁挑战令 05/13 12:33
1216F:→ mikilin23: 留着明天可以3次挑战 05/13 12:33
1217F:嘘 lykewake: 这种关键时刻不挑战,不知在想啥 05/13 12:33
1218F:→ acerfit121: 一定中计的啦 剧本都演几次了 05/13 12:33
1219F:推 qazzaq3977: 该换眼镜了吧 05/13 12:33
1220F:推 foxlula: 第几次了?有够87每次挑战都留着不用冲三小 05/13 12:33
1221F:推 JustWinslow: 不挑战. 05/13 12:33
1222F:→ Axy8: 真的是吐了 05/13 12:33
1223F:→ Rentch: 生利息喔 05/13 12:33
1224F:推 took: 好可惜阿 盲西 05/13 12:33
1225F:→ grade1kimo: 总觉得会鸟飞end 05/13 12:33
1226F:推 p369369963: 要挑战才对啊 05/13 12:33
1227F:→ metro721: 西语组加油 05/13 12:33
1228F:→ ludoren: 平常队友太爱乱挑战 搞得关键时刻不敢挑战 05/13 12:33
1229F:→ same60710: 如果2那颗挑战失败 说5不敢挑战还有理由 你又没挑战2 05/13 12:33
1230F:推 sharkmew: muncy可以挑战吧,主审都海几颗了 05/13 12:33
1231F:→ anniewawa: 只想尻大棒都不带脑 05/13 12:33
1232F:推 yuan0119: 想早点下班错了吗 05/13 12:33
1233F:→ took: 在等忙西开轰阿 05/13 12:33
1234F:推 yufat: 忙西这麽大炮可以挑战啊 哭内 05/13 12:33
1235F:推 linedrive: 那真的没分了 05/13 12:34
1236F:→ roylee1214: 还有两次嘿 05/13 12:34
1237F:→ Axy8: 把两次用完会要了道奇的命吗 05/13 12:34
1238F:→ foxlula: 8下满垒还不用? 甚麽时候用? 05/13 12:34
1239F:→ Getbackers: 请不要场外诸葛 05/13 12:34
1240F:推 s920223: 小金:你看盲西大学长都不挑战 不能怪我 05/13 12:34
1241F:推 pink0518: 八局了耶 留着要干嘛 05/13 12:34
1242F:嘘 LaserLi: 道奇每次都在省挑战真的不知道在干嘛 05/13 12:34
1243F:推 Tedge: 都八局了....关键不挑战? 05/13 12:34
1244F:推 i376ers: ???????????? 05/13 12:34
1245F:推 yang826: 是不是忘了挑战 05/13 12:34
1246F:推 gn7722: 挑战留着生利息等世界大赛再用 05/13 12:34
1247F:推 domoto0101: 水喔 05/13 12:34
1248F:→ Axy8: 真的傻眼 就知道今天主审偏海还不挑战 05/13 12:35
1249F:→ wl2340167: 那球确实很接近 但8下满垒大局一出局 可以挣扎一下 05/13 12:35
1250F:推 polanco: 中计寸前 05/13 12:35
1251F:推 xpoooqx: 满垒1out关键三振 不挑战真的傻爆眼 05/13 12:35
1252F:→ i376ers: 这些老人是忘记有挑战吗 05/13 12:35
1253F:→ anniewawa: 就单纯智上球商都低 05/13 12:35
1254F:→ Getbackers: 也许眼镜自己就看清楚这是好球了,没必要挑战 05/13 12:35
1255F:推 inschool: 没打好 05/13 12:35
1256F:推 Ferrari360: 可惜 05/13 12:35
1257F:→ inschool: 凉凉凉凉凉 05/13 12:36
1258F:推 benboy: 甜球失打 05/13 12:36
1259F:推 caca13140405: 可惜 05/13 12:36
1260F:推 gotohikaru: 哭啊 05/13 12:36
1261F:推 Yuko300: 可惜 05/13 12:36
1262F:→ Getbackers: 没了 05/13 12:36
1263F:→ Axy8: 看看赛後萝卜说什麽 05/13 12:36
1264F:推 myeunji: 巨人,漂亮! 05/13 12:36
1265F:推 p369369963: 可惜啊 05/13 12:36
1266F:推 faratia: 大中计 05/13 12:36
1267F:推 zxcghjko: 中计 05/13 12:36
1268F:推 joanna1212: 躲人满垒计 05/13 12:36
1269F:推 zego41: 可惜啦 气势很强 05/13 12:36
1270F:→ Ferrari360: .................... 05/13 12:36
1271F:推 SHOTN17: 可惜 05/13 12:36
1272F:推 dododododora: 大中计 05/13 12:36
1273F:推 Beakidd: 87队伍 05/13 12:36
1274F:推 cdsjquiz: 可惜了 05/13 12:36
1275F:推 JazMaHoJo: 中计 05/13 12:36
1276F:推 nanamiiwill: 干 05/13 12:36
1277F:推 yufat: 丸子 05/13 12:36
1278F:→ yang826: 哈哈哈 05/13 12:36
1279F:推 asdfg5287: 大中计 05/13 12:36
1280F:推 jiaxie: Pages 左外飞球进手套OUT,满垒残 05/13 12:36
1281F:推 grade1kimo: 哈哈哈哈哈哈哈哈哈哈 05/13 12:36
1282F:嘘 FOREVER49KG: 没挑战超伤 05/13 12:36
1283F:推 s920223: GGGGGGG 05/13 12:36
1284F:推 same60710: 啊红中没轰出去Orz 05/13 12:36
1285F:推 webber04: 烂 05/13 12:36
1286F:→ anniewawa: 都去切腹啦真该死 05/13 12:36
1287F:推 jerrysaikou: 中计 05/13 12:36
1288F:推 howard1997: 好烂 大中计 05/13 12:36
1289F:推 MK47: 中计啦 05/13 12:36
1290F:→ sally09287: 中计 05/13 12:36
1291F:→ benboy: 大中计 05/13 12:36
1292F:推 yuan0119: 又中计拉,笑死 05/13 12:36
1293F:推 CaminoI: 满垒计 05/13 12:36
1294F:推 liuon: 可惜了 大中计 05/13 12:36
1295F:推 forgetwen: 可惜 05/13 12:36
1296F:→ i376ers: 可怜哪 05/13 12:36
1297F:推 metro721: 啊..... 05/13 12:36
1298F:推 aa01081008tw: 一棒追平只是个梦XD 05/13 12:36
1299F:推 pink0518: 到底在不挑战什麽 05/13 12:36
1300F:推 dtdon1699: 哈哈哈 满垒零分 05/13 12:36
1301F:→ Axy8: 气死 05/13 12:36
1302F:推 kaybear3001: 面包球没打好 05/13 12:36
1303F:推 fisheryu0514: 大中计 05/13 12:36
1304F:推 knightjames: 今年道奇不会夺冠了 05/13 12:36
1305F:推 took: 好可惜阿 好可惜阿 好可惜阿干干干 05/13 12:36
1306F:推 qm29213039: 大中计 笑死 05/13 12:36
1307F:推 c251970: 打得很好欸可惜进手套 05/13 12:36
1308F:推 hexokinase: 中计 05/13 12:36
1309F:推 helba: 蓝色又中计 05/13 12:36
1310F:推 tsanning: 可惜 05/13 12:36
1311F:推 wl2340167: 哭了 道奇要亡 05/13 12:36
1312F:→ knightjames: 战力下滑严重 05/13 12:36
1313F:→ asdfg5287: 道奇还活在没abs挑战的年代吗 05/13 12:36
1314F:推 money1943: 小中计 05/13 12:37
1315F:→ same60710: 大中计 05/13 12:37
1316F:→ roylee1214: 大中计 05/13 12:37
1317F:推 Ricky0421: 为什麽那颗不挑战要被拉 05/13 12:37
1318F:推 dy1278dy: 中计 05/13 12:37
1319F:推 xpoooqx: 输输去了 05/13 12:37
1320F:→ yufat: 躲人该排毒了 05/13 12:37
1321F:→ webber04: 以後全ABS谢谢 整天搞这些有的没的有够无聊 05/13 12:37
1322F:推 rota: 谁投道奇都像赛阳 05/13 12:37
1323F:→ anniewawa: 巨人横扫好爽 05/13 12:37
1324F:→ acerfit121: 就说了吧 中计是一定的 05/13 12:37
1325F:→ metro721: 突破3分是个坎啊 05/13 12:37
1326F:推 rongs: 超可惜 05/13 12:37
1327F:→ money1943: 没挑战 是萝卜有下禁令吗 05/13 12:37
1328F:推 foxlula: 继续挑战留着下一场用阿 05/13 12:37
1329F:推 polanco: 打巨人也打成这样是真的没想到 05/13 12:37
1330F:推 youaryct: 还是不懂为什麽那球不挑战 05/13 12:37
1331F:推 karta3127117: 宇宙战舰就这? 05/13 12:38
1332F:→ metro721: 乾人 05/13 12:38
1333F:→ anniewawa: 连霸2届没慾望了 05/13 12:38
1334F:推 wallaceboy: 还有9下 加油 05/13 12:38
1335F:→ metro721: 乾人好操啊 05/13 12:39
1336F:推 Axy8: 打线都冷多久了怎麽会没想到 05/13 12:39
1337F:推 sunwit: 道奇全队看起来没几个想赢的 05/13 12:40
1338F:推 grade1kimo: 上次打巨人也差不多这鸟样啊 05/13 12:42
1339F:推 jiaxie: 笑死今天又有领绳机会了,呵呵 05/13 12:42
1340F:→ anniewawa: 该拿的都拿了剩下随便罗 05/13 12:42
1341F:推 took: 到底干嘛不挑战啊啊啊 乾乾乾 05/13 12:43
1342F:推 MK47: 跑好快 05/13 12:43
1343F:推 i376ers: ???? 05/13 12:43
1344F:→ jiaxie: 江湖李 2OUT 内野安打! 05/13 12:44
1345F:→ took: 故意打小球? 05/13 12:44
1346F:推 sally09287: 太快了 05/13 12:44
1347F:推 sasmwh561: 厚厚做代志 05/13 12:44
1348F:→ anniewawa: 因爲我手上有戒指了 05/13 12:44
1349F:推 p369369963: 一朗式打法 05/13 12:44
1350F:推 cama: 极限腿哥 05/13 12:44
1351F:推 linedrive: 九下不用看 一定没分 05/13 12:44
1352F:推 tsanning: 道奇全队散发一种待退老人味 怕受伤? 05/13 12:44
1353F:推 sasmwh561: 九局靠大谷 05/13 12:45
1354F:→ anniewawa: 等领薪水过晚年 05/13 12:45
1355F:→ took: 死屍打线 05/13 12:45
1356F:推 ggy3218: 塔克 在你来之前我们就是冠军了 05/13 12:46
1357F:推 rota: 这看不出来要拚三连霸 05/13 12:46
1358F:→ anniewawa: 都走光了,第几次了 05/13 12:46
1359F:推 linedrive: 老师要被k罗 05/13 12:47
1360F:嘘 money1943: 出局如风 05/13 12:47
1361F:推 jiaxie: 一看二挥光速两好 05/13 12:47
1362F:→ linedrive: M2? 05/13 12:47
1363F:推 Ferrari360: .................... 05/13 12:47
1364F:推 MK47: XDDD 05/13 12:47
1365F:推 inschool: 想到要挑战了 然後失败 05/13 12:47
1366F:→ dododododora: 3球k 05/13 12:47
1367F:推 zxcghjko: 惨 05/13 12:48
1368F:推 i376ers: 刚才不挑战 现在挑战这颗 05/13 12:48
1369F:推 gn7722: 这种才在挑战 05/13 12:48
1370F:推 ludoren: 突然想到有挑战哦? 05/13 12:48
1371F:推 metro721: .... 05/13 12:48
1372F:推 s920223: 突然想到还有挑战 05/13 12:48
1373F:推 Beakidd: 这种又在那挑战,搞笑 05/13 12:48
1374F:推 ggy3218: 如风 05/13 12:48
1375F:推 took: 该挑战不挑战 干 盲西呀盲西 05/13 12:48
1376F:→ linedrive: 小金自杀棒 05/13 12:48
1377F:推 tsanning: 北七 05/13 12:48
1378F:→ jiaxie: Hernandez 一看二挥三振! 盲西上一局敢用ABS结局会不同 05/13 12:48
1379F:推 fmtpeter: 小金醒醒 05/13 12:48
1380F:→ money1943: 原来萝卜九局才开放挑战 05/13 12:48
1381F:→ tsanning: 满垒不挑战 05/13 12:48
1382F:推 yang826: 观众闪光光 05/13 12:49
1383F:推 roylee1214: 原来九局才可以挑战唷 05/13 12:49
1384F:→ dododododora: M1 05/13 12:49
1385F:→ tsanning: 观众真的走光了 好惨 05/13 12:49
1386F:→ Ferrari360: 笑死 要尻吗 05/13 12:49
1387F:→ jiaxie: Kim 投手前滚地OUT。 笑死上来领绳了 05/13 12:49
1388F:→ roylee1214: 最近的道奇真的毫无期待感 05/13 12:49
1389F:→ metro721: ... 05/13 12:49
1390F:推 faratia: 大谷关门 05/13 12:49
1391F:→ tsanning: 下班了啦 05/13 12:49
1392F:推 nightcrow: 刷刷无关紧要的轰吧 05/13 12:49
1393F:→ fmtpeter: 敢不敢双响 05/13 12:49
1394F:→ jiaxie: 先猜吃K 05/13 12:49
1395F:→ yang826: 别管输赢了 学长来个双响炮刷一下 05/13 12:50
1396F:→ ctes940008: 凉 05/13 12:50
1397F:推 gotohikaru: 哭啊 05/13 12:50
1398F:推 ggy3218: 投手会怕 05/13 12:50
1399F:推 inschool: 被NP 哈哈哈 05/13 12:50
1400F:→ SorrowWind: NP 05/13 12:50
1401F:→ roylee1214: 要久违的无关紧要轰吗 05/13 12:50
1402F:→ ctes940008: NPPP 05/13 12:50
1403F:→ Ferrari360: 掰 05/13 12:50
1404F:推 zxcghjko: NP GG 05/13 12:50
1405F:→ tsanning: 刚刚盲西要是追平 观众就回来了 05/13 12:50
1406F:推 myeunji: 水!巨人win!! 05/13 12:50
1407F:推 ycsheaven: 这被NP没话说 05/13 12:50
1408F:推 MK47: NP 05/13 12:50
1409F:推 SHOTN17: NP GG! 05/13 12:50
1410F:推 Tr3vyy: 再见NP 05/13 12:50
1411F:推 i376ers: 哭阿 05/13 12:51
1412F:推 a40558473: nppppp 05/13 12:51
1413F:推 teata: 没了 05/13 12:51
1414F:→ tsanning: 还以为安打 05/13 12:51
1415F:推 dtdon1699: 下班了 05/13 12:51
1416F:推 yufat: 走远了 05/13 12:51
1417F:→ metro721: 安打都不给 05/13 12:51
1418F:→ jiaxie: 笑死 一垒滚地OUT,领绳成功,GG 05/13 12:51
1419F:推 yangtsur: 这也要扑接.. 05/13 12:51
1420F:→ faratia: 四连败 05/13 12:51
1421F:推 socharge: 有100吧 05/13 12:51
1422F:→ yang826: 大谷状态有回来唷 快赶一下全垒打纪录 05/13 12:51
1423F:推 hexokinase: 镜头不给外野XD 05/13 12:51
1424F:推 sasmwh561: 铺的好啊 05/13 12:51
1425F:嘘 money1943: 大谷慢慢跑 05/13 12:51
1426F:→ tsanning: 惨 但大谷今天状况好一点了 05/13 12:51
1427F:→ Diaw0803: 领绳结束 继续连败QQ 05/13 12:51
1428F:→ ggy3218: 谷迷振奋 炸一只 05/13 12:51
1429F:推 zego41: 山本也不能止败 只能靠大谷了 05/13 12:51
1430F:推 Beakidd: 四连败,太屌啦 05/13 12:51
1431F:→ tsanning: 可惜明天大谷又不打了 只投 05/13 12:52
1432F:→ jiaxie: OPS再跌回去.7开头 05/13 12:52
1433F:→ Diaw0803: 明天靠CY大谷 05/13 12:52
1434F:推 Yjizz: Arraez这样猛 05/13 12:52
1435F:推 marx93521: 守备到底发生什麽事变这麽好 05/13 12:52
1436F:推 SHOTN17: 你期望问天群组长能止败? 呵呵 05/13 12:52
1437F:推 i376ers: 今年道奇整个老态都出来了 05/13 12:53
1438F:推 leo79415: 明天还是给他打比较好吧 05/13 12:53
1439F:推 sindarin: 怎麽没拍外野庆祝啊 05/13 12:54
1440F:推 tsanning: 看最新发文 外野庆祝动作被禁播了吧 05/13 12:56
1441F:推 wallaceboy: 明天大谷靠自己了 05/13 13:03
1442F:→ jack86326: https://www.youtube.com/watch?v=gdIIcE525jE 05/13 13:41
1443F:→ jack86326: https://www.youtube.com/watch?v=pjQXvj32u1w 05/13 13:41
1444F:→ jack86326: https://www.threads.com/post/DYPaTUgk0K2 05/13 13:42
1445F:→ jack86326: VL 李秉昇/林俊达 ELTA 林炜珽/潘忠韦 05/13 13:42
1446F:→ jack86326: 今日标题:峇=山洞山窟,氩镞=养足蓄锐谐音 05/13 13:43
1447F:→ jack86326: https://dict.concised.moe.edu.tw/dictView.jsp?ID=42 05/13 13:44
1448F:→ jack86326: https://reurl.cc/lpM1WY 氩=无色无味无臭气体 挥空(气 05/13 13:46
1449F:→ jack86326: http://dict.revised.moe.edu.tw/dictView.jsp?ID=9615 05/13 13:47
1450F:→ jack86326: 镞:N=箭头,ADJ=锋利,金族=金色 pattern黄袍加身 05/13 13:48
1451F:→ jack86326: 黄金圣衣请见https://www.instagram.com/p/DRH_zy3Dtm4 05/13 13:49
1452F:→ jack86326: 饶生人=巨人请放过躲人一马(进巨捏他) 05/13 13:50
1453F:推 jiaxie: 希望大谷解冻,山本 金 李 亚洲球员同场 05/13 14:07
1454F:→ jack86326: 补最後一楼GET https://youtu.be/rFsvNYo8i2M 05/16 00:07







like.gif 您可能会有兴趣的文章
icon.png[问题/行为] 猫晚上进房间会不会有憋尿问题
icon.pngRe: [闲聊] 选了错误的女孩成为魔法少女 XDDDDDDDDDD
icon.png[正妹] 瑞典 一张
icon.png[心得] EMS高领长版毛衣.墨小楼MC1002
icon.png[分享] 丹龙隔热纸GE55+33+22
icon.png[问题] 清洗洗衣机
icon.png[寻物] 窗台下的空间
icon.png[闲聊] 双极の女神1 木魔爵
icon.png[售车] 新竹 1997 march 1297cc 白色 四门
icon.png[讨论] 能从照片感受到摄影者心情吗
icon.png[狂贺] 贺贺贺贺 贺!岛村卯月!总选举NO.1
icon.png[难过] 羡慕白皮肤的女生
icon.png阅读文章
icon.png[黑特]
icon.png[问题] SBK S1安装於安全帽位置
icon.png[分享] 旧woo100绝版开箱!!
icon.pngRe: [无言] 关於小包卫生纸
icon.png[开箱] E5-2683V3 RX480Strix 快睿C1 简单测试
icon.png[心得] 苍の海贼龙 地狱 执行者16PT
icon.png[售车] 1999年Virage iO 1.8EXi
icon.png[心得] 挑战33 LV10 狮子座pt solo
icon.png[闲聊] 手把手教你不被桶之新手主购教学
icon.png[分享] Civic Type R 量产版官方照无预警流出
icon.png[售车] Golf 4 2.0 银色 自排
icon.png[出售] Graco提篮汽座(有底座)2000元诚可议
icon.png[问题] 请问补牙材质掉了还能再补吗?(台中半年内
icon.png[问题] 44th 单曲 生写竟然都给重复的啊啊!
icon.png[心得] 华南红卡/icash 核卡
icon.png[问题] 拔牙矫正这样正常吗
icon.png[赠送] 老莫高业 初业 102年版
icon.png[情报] 三大行动支付 本季掀战火
icon.png[宝宝] 博客来Amos水蜡笔5/1特价五折
icon.pngRe: [心得] 新鲜人一些面试分享
icon.png[心得] 苍の海贼龙 地狱 麒麟25PT
icon.pngRe: [闲聊] (君の名は。雷慎入) 君名二创漫画翻译
icon.pngRe: [闲聊] OGN中场影片:失踪人口局 (英文字幕)
icon.png[问题] 台湾大哥大4G讯号差
icon.png[出售] [全国]全新千寻侘草LED灯, 水草

请输入看板名称,例如:BuyTogether站内搜寻

TOP